GFSSW_sfc_thetae_000.txt.gz
Theta_e
324 324 323 322 322 322 323 324 325 325 326 327 328 328 327 326 324 318 309 314 318 329 326 314 311 312 311 312 312 309 299 296 295 296 297 301 299 302 302 300 301 303 298 299 301
323 323 322 321 321 322 322 323 324 325 326 327 327 328 327 325 319 310 318 326 328 328 311 308 307 309 307 308 308 302 299 297 299 299 298 300 299 297 298 298 297 299 299 300 299
322 322 321 320 321 321 322 323 324 325 325 326 327 328 325 322 314 309 324 328 326 321 311 309 309 310 305 306 303 302 298 300 301 302 301 299 298 298 297 294 296 294 294 297 296
321 320 320 320 320 320 321 323 324 325 325 325 327 327 323 320 303 311 325 327 325 316 310 309 308 304 302 301 303 297 302 302 303 302 300 297 298 297 297 296 297 296 296 295 294
321 319 319 319 319 319 320 323 324 324 325 326 327 327 320 311 307 313 322 318 312 311 308 307 304 303 300 300 301 299 299 301 301 300 298 300 297 297 295 297 296 296 296 293 293
320 318 318 318 318 318 320 322 323 324 324 326 328 322 318 307 313 317 310 310 308 309 308 306 304 304 302 301 298 300 300 300 300 299 299 297 295 297 295 295 294 295 293 292 292
319 318 317 317 317 317 319 321 323 323 324 326 326 319 314 308 312 315 310 308 308 307 307 306 305 303 303 301 301 299 295 297 297 298 297 297 294 294 295 296 293 292 291 292 292
318 317 316 317 316 316 319 321 322 323 324 326 324 318 309 315 314 313 312 310 309 308 308 306 306 304 302 302 299 295 294 291 297 298 297 295 288 292 295 294 290 289 287 289 291
318 316 316 316 315 316 319 320 321 323 324 324 319 314 306 315 312 312 310 305 306 307 306 305 305 302 301 296 293 294 288 290 293 297 295 294 289 293 294 291 288 287 287 288 289
317 316 316 315 314 316 319 321 323 321 319 314 312 309 309 308 312 310 309 307 305 305 305 303 301 296 296 293 285 286 286 289 289 293 293 291 291 292 291 289 286 285 285 285 286
317 316 316 314 314 317 319 316 309 312 308 305 305 305 308 312 311 308 307 305 306 302 299 301 293 292 294 292 291 291 289 288 292 294 289 290 289 291 289 287 285 284 284 284 285
317 315 314 312 313 317 316 307 306 308 298 307 307 308 311 309 302 304 306 301 301 296 301 297 293 294 295 294 293 291 289 288 290 294 290 289 289 288 288 287 286 285 283 283 284
316 314 313 312 314 315 309 307 312 313 301 304 307 308 307 306 301 302 302 300 298 296 295 291 296 295 293 292 291 289 287 286 286 289 290 288 285 284 285 285 286 286 285 285 283
315 313 311 311 311 310 309 310 312 311 296 299 301 305 304 303 299 303 301 299 298 295 292 291 293 293 292 291 290 286 288 288 287 283 278 285 276 282 282 282 284 285 282 282 282
314 312 309 310 309 307 308 311 310 306 285 299 302 306 304 299 300 300 301 298 294 295 291 291 289 288 288 289 291 288 288 286 285 283 281 282 278 281 283 280 282 282 282 281 282
313 310 308 311 310 307 308 308 305 295 285 297 302 300 299 297 299 300 299 298 296 291 292 291 293 290 289 292 290 290 287 286 285 282 274 280 279 280 280 283 281 282 281 282 282
312 308 308 308 305 307 309 306 293 288 298 295 296 298 296 296 298 296 295 292 289 287 287 290 289 290 291 287 289 288 282 275 275 274 274 280 276 280 281 282 281 280 280 280 281
311 307 310 308 309 307 310 296 286 294 296 297 296 295 294 296 295 293 290 288 293 290 286 284 283 288 290 287 283 283 281 275 269 271 273 277 273 279 282 283 283 282 281 281 281
309 309 309 309 310 309 299 290 289 294 299 296 295 292 294 293 291 289 289 289 291 291 285 285 284 286 285 286 285 283 278 282 275 268 267 273 279 281 282 281 281 280 280 279 280
310 309 310 309 308 307 293 292 294 299 297 296 292 295 289 291 288 289 290 292 290 290 290 286 280 285 282 283 282 280 283 275 275 264 264 273 275 276 277 278 279 278 278 278 280
306 303 306 310 309 299 287 291 296 301 299 296 293 292 293 292 292 290 290 291 291 287 286 284 284 280 282 279 279 277 276 277 277 276 268 265 271 279 278 279 277 278 279 279 280
304 297 306 310 296 297 292 295 298 298 298 297 295 294 293 293 292 290 290 293 290 287 282 284 283 277 280 280 280 279 278 278 270 271 272 271 272 283 281 279 279 279 279 279 281
300 301 306 306 291 293 297 296 298 297 295 294 293 295 295 292 287 291 292 287 289 286 283 282 279 276 277 276 278 275 276 277 277 275 271 270 271 281 281 280 279 277 277 279 280
304 293 298 299 298 295 294 294 293 296 295 296 294 295 292 290 291 288 289 285 286 286 287 287 281 280 280 282 278 274 275 276 275 272 273 273 274 279 281 280 277 277 278 278 279
303 297 298 289 291 294 295 295 293 293 295 295 292 292 291 288 288 288 290 282 283 285 283 283 277 279 280 279 278 277 276 275 274 275 272 275 275 278 279 276 275 276 279 279 278
298 296 296 297 296 293 293 292 293 295 296 293 292 294 292 289 291 288 290 288 283 281 281 282 276 279 276 277 276 274 275 276 276 276 275 276 275 281 281 277 275 278 278 277 277
305 305 300 297 295 294 293 293 294 296 298 299 297 294 291 292 294 291 289 290 288 282 280 280 277 274 273 275 274 270 274 275 276 277 276 272 276 280 277 277 276 277 277 276 276

GFSSW_sfc_thetae_003.txt.gz
Theta_e
324 324 323 323 323 322 322 324 325 326 326 327 327 328 328 326 325 313 305 311 317 330 327 313 309 305 305 305 306 302 295 292 290 292 293 297 295 298 298 296 295 297 294 295 297
323 322 322 322 322 322 322 323 325 325 326 327 327 328 327 324 315 306 317 327 330 328 308 304 303 305 301 302 303 298 293 293 295 294 293 296 295 295 295 293 292 293 295 296 296
322 322 321 321 321 322 322 323 324 325 325 326 326 328 325 320 308 306 323 329 327 323 310 305 305 304 300 301 298 296 293 296 297 298 298 296 295 296 294 290 290 290 291 293 293
321 321 320 320 320 320 321 322 324 325 325 326 326 327 323 315 297 308 327 327 328 317 307 306 303 299 297 296 299 292 298 298 300 299 298 295 296 293 293 291 294 293 292 291 290
321 320 319 319 320 320 320 322 323 324 324 326 327 326 314 305 303 311 320 316 308 308 305 303 300 298 295 296 297 295 297 298 299 298 296 298 295 292 289 292 293 293 292 290 290
320 319 318 319 319 318 319 321 323 324 324 326 327 323 310 300 310 313 307 308 305 305 304 302 300 301 297 298 295 297 297 297 298 298 297 295 294 293 291 291 291 291 290 290 290
320 318 318 318 318 317 318 321 322 323 324 326 327 319 307 304 309 309 307 304 304 304 304 302 301 300 300 297 299 296 292 294 295 296 295 296 291 290 292 291 290 289 288 289 290
320 318 317 318 317 316 318 320 322 322 324 325 326 314 303 312 308 309 307 305 305 304 304 303 303 301 298 299 297 292 290 287 294 295 295 292 286 289 291 288 286 285 284 287 287
319 317 317 317 316 316 318 320 321 324 324 324 313 306 301 314 308 309 304 302 303 303 303 304 302 298 297 292 289 290 285 285 290 295 293 291 287 290 292 287 285 283 284 285 284
319 317 317 317 315 316 319 321 322 321 318 314 310 302 304 304 308 308 304 303 302 301 302 300 296 292 291 289 283 283 283 286 286 291 292 290 289 289 289 286 283 283 282 282 283
319 317 316 316 315 317 315 306 302 303 302 300 301 301 305 309 307 305 303 302 302 298 294 297 291 288 289 288 288 288 287 285 289 293 289 289 289 287 287 284 281 281 281 282 283
319 316 316 315 314 317 309 302 301 303 294 302 304 304 308 305 299 302 302 297 297 292 295 292 289 293 294 292 291 289 287 285 289 291 288 287 286 290 286 284 283 282 282 282 282
317 315 314 314 313 310 303 303 309 306 295 299 304 305 305 303 299 299 298 296 294 292 291 288 292 292 291 288 288 287 285 284 286 287 287 285 282 285 284 284 284 284 283 282 282
317 314 313 312 308 303 303 307 308 304 288 294 297 303 301 300 296 301 298 296 294 292 289 288 291 290 289 289 290 284 287 286 285 281 277 282 276 279 281 282 283 283 280 280 281
316 313 311 311 303 301 304 307 305 300 277 294 299 304 302 297 297 298 298 295 291 293 291 291 287 287 287 287 290 286 286 285 284 281 278 279 275 278 281 279 281 280 280 280 281
315 310 308 307 303 302 303 303 299 289 280 294 299 297 295 295 296 297 296 295 294 289 289 290 290 288 287 290 289 289 286 284 282 279 272 278 278 276 277 281 281 279 279 281 281
314 308 306 306 299 301 303 299 286 281 292 292 293 295 293 293 294 294 292 289 290 285 284 288 286 288 290 286 288 286 280 275 272 272 273 277 275 280 282 282 282 278 279 280 280
312 307 307 306 303 302 302 291 280 288 291 294 293 292 291 294 293 290 288 287 289 287 283 282 281 286 288 286 284 284 280 275 270 269 276 277 274 279 280 281 280 280 280 280 279
309 303 303 304 304 302 292 283 285 289 294 294 292 288 289 291 290 287 285 286 289 289 285 282 282 284 284 285 285 281 278 282 276 263 266 273 276 279 279 279 278 278 279 278 279
308 307 304 305 304 301 286 290 290 295 295 294 290 291 287 289 287 286 287 289 289 289 288 285 280 283 281 282 282 281 283 277 277 270 264 271 274 277 276 277 277 277 277 278 278
306 300 302 305 304 294 284 287 292 297 297 293 290 290 290 288 288 286 288 290 289 285 286 284 282 280 280 279 279 276 276 278 278 277 271 267 273 278 279 279 276 276 278 278 278
306 294 302 305 292 289 290 291 296 295 298 295 293 292 290 290 289 288 289 292 289 286 284 284 281 275 278 280 281 279 279 279 276 274 274 275 275 281 280 278 277 277 278 279 280
300 298 304 304 290 290 293 293 295 293 294 292 291 293 294 290 287 290 292 289 288 287 283 283 278 272 279 275 277 276 276 278 278 277 274 272 273 279 278 276 277 276 277 278 278
297 291 296 298 296 291 291 292 292 295 295 295 292 293 291 288 292 288 288 286 287 285 290 287 280 282 281 284 279 277 275 276 277 275 275 275 277 278 276 275 275 276 277 277 277
298 293 294 288 291 292 293 291 291 290 293 295 292 292 290 287 287 287 289 281 283 287 284 283 277 279 283 283 280 281 279 276 274 277 275 277 277 280 282 279 277 277 277 277 276
297 291 292 289 292 291 292 290 289 290 293 290 290 290 292 289 290 287 290 287 285 281 280 282 277 279 278 280 279 276 278 277 277 277 277 277 277 284 282 278 275 276 277 277 276
306 301 297 293 290 289 289 290 291 293 294 295 293 292 290 291 294 293 291 290 290 282 279 279 278 276 276 278 275 272 276 277 278 279 279 273 278 283 280 277 276 276 277 276 275

GFSSW_sfc_thetae_006.txt.gz
Theta_e
325 324 324 324 323 323 323 324 325 326 326 326 327 328 327 325 322 308 303 309 316 330 326 311 305 304 304 304 304 301 293 290 289 290 291 294 294 295 295 292 293 294 292 294 294
324 323 323 323 323 323 323 323 325 325 326 326 326 328 327 324 311 305 317 324 331 328 306 302 301 303 300 300 301 296 292 292 293 293 292 294 293 294 292 290 290 290 293 293 292
323 322 322 322 322 323 323 323 324 325 325 325 326 327 325 319 304 304 323 328 327 325 308 303 303 302 298 299 296 294 291 295 296 296 296 295 293 293 291 289 290 289 289 290 290
322 321 321 321 321 322 322 322 323 324 325 325 326 327 324 312 294 306 326 327 328 312 306 304 301 297 295 294 298 292 296 297 299 298 296 294 294 291 290 290 292 290 290 289 288
321 321 320 320 320 321 321 322 323 324 324 325 326 326 313 301 301 309 320 315 306 306 303 301 298 296 293 295 296 293 295 297 297 297 296 296 292 291 288 290 291 290 290 288 288
319 320 319 319 320 320 319 321 323 323 323 325 326 323 307 299 308 310 305 306 304 304 302 301 298 299 296 296 293 295 296 296 297 296 296 293 290 291 290 290 289 289 288 288 289
318 320 319 319 319 319 318 320 323 323 323 325 326 317 306 303 308 306 305 303 303 302 302 301 300 298 297 295 297 295 292 294 294 295 294 293 289 290 291 289 288 287 287 288 288
318 319 319 318 319 318 317 320 321 322 324 325 325 313 301 309 308 307 304 304 303 302 303 301 301 299 296 297 295 291 289 287 292 294 293 291 286 290 290 289 286 285 284 286 286
318 319 318 318 318 317 317 319 320 323 324 324 313 307 299 313 306 308 303 301 301 301 301 303 301 297 295 292 288 287 284 285 288 294 292 290 286 289 289 287 285 283 283 283 283
318 318 318 318 317 317 317 320 320 319 315 313 308 301 302 302 307 306 304 302 300 300 300 299 293 290 290 288 285 284 282 284 285 289 290 289 288 288 289 285 284 282 282 281 282
319 318 318 318 317 317 314 303 301 300 301 299 297 300 302 308 306 303 302 300 300 297 293 295 291 289 290 289 288 286 285 284 287 291 288 288 290 287 289 284 282 281 280 280 282
319 318 317 317 317 316 306 297 299 301 294 298 300 303 305 303 298 301 301 296 296 292 292 291 288 292 292 290 288 287 285 285 288 289 287 287 286 289 288 286 285 283 280 280 281
318 317 316 316 315 308 300 300 307 304 292 296 302 302 303 301 297 298 297 295 293 291 291 289 291 292 290 287 286 285 285 284 284 286 285 284 282 287 285 286 283 282 282 281 281
318 317 315 314 307 302 301 305 306 303 286 290 296 300 299 299 295 299 297 295 293 292 290 288 290 289 287 287 287 283 286 286 284 281 278 281 277 280 281 282 282 282 280 280 280
317 316 313 312 298 299 303 305 303 297 276 291 298 303 300 296 296 296 297 295 293 292 291 290 286 286 286 287 289 285 285 284 283 280 277 279 276 279 279 279 280 281 280 279 280
317 315 309 306 300 300 302 300 297 286 278 290 297 295 294 294 295 296 295 295 293 288 287 289 289 287 287 288 287 288 285 283 280 278 272 278 277 275 276 280 281 282 279 280 280
317 313 307 304 297 301 302 297 283 279 289 290 293 295 292 292 292 293 291 289 290 285 284 286 286 286 289 285 287 286 281 276 273 271 274 277 275 282 282 282 282 282 279 279 279
316 310 307 305 302 301 299 291 278 284 287 293 292 291 290 292 291 291 288 287 288 287 282 282 281 285 288 286 285 284 282 277 270 271 279 275 275 280 280 280 283 283 280 278 278
311 304 305 303 302 302 290 282 285 287 291 292 291 287 287 290 291 287 286 286 290 289 286 281 281 284 284 285 285 281 278 281 274 262 266 274 277 281 278 277 277 278 278 277 278
308 307 303 304 303 298 285 288 289 292 294 293 287 290 286 289 288 286 285 288 288 289 289 286 281 282 281 283 282 282 283 276 275 269 266 273 275 279 275 275 276 276 276 277 278
307 299 300 304 304 294 287 287 291 295 295 292 289 288 289 288 287 284 287 289 290 286 287 284 284 280 280 279 281 277 277 278 277 279 272 271 280 280 279 279 276 277 278 277 277
304 293 300 304 293 288 290 289 293 293 295 294 292 291 290 289 286 286 287 291 290 287 284 284 281 277 278 280 280 280 281 281 275 274 275 275 278 282 281 281 279 278 278 277 278
298 295 304 303 288 289 290 291 293 291 293 292 291 292 292 289 286 289 291 292 288 288 284 284 279 274 278 277 276 276 277 281 278 278 277 273 278 278 277 277 278 277 277 277 277
299 290 296 297 296 290 289 290 290 294 293 292 291 292 290 288 292 287 287 287 287 288 293 289 281 281 281 283 279 275 274 277 280 277 278 278 279 284 279 276 275 275 276 276 277
299 292 294 288 290 293 292 290 289 289 292 294 291 291 290 287 288 287 288 283 282 287 285 285 281 280 285 287 281 282 283 278 277 280 278 281 282 285 287 283 276 278 276 276 276
299 295 293 288 291 291 292 290 289 289 291 290 290 290 292 288 289 286 290 284 286 279 280 281 280 280 279 282 280 279 282 282 282 281 281 281 280 288 288 277 276 276 276 276 276
308 302 299 295 289 289 289 290 290 292 293 294 293 292 289 292 295 295 291 290 291 285 279 278 279 276 278 280 278 275 280 281 282 283 282 277 282 287 283 277 275 275 277 277 277

GFSSW_sfc_thetae_009.txt.gz
Theta_e
325 325 325 325 324 324 324 324 325 326 326 326 327 327 327 326 321 306 302 309 314 330 325 307 303 303 302 302 302 299 292 289 287 290 291 293 292 292 292 291 290 291 291 292 294
324 324 324 324 324 324 324 324 325 325 325 326 326 327 327 324 308 303 317 324 330 329 304 302 300 301 299 299 299 295 290 291 292 292 292 293 292 292 291 288 287 288 290 291 291
321 323 323 323 323 324 323 323 324 324 325 325 326 326 325 318 302 301 325 327 327 324 306 302 301 300 296 297 295 293 289 294 295 295 296 294 292 292 290 288 288 287 288 289 289
319 321 322 322 322 323 323 322 323 324 324 324 325 326 322 309 292 304 326 326 325 310 304 302 300 296 294 293 296 291 294 295 298 297 295 293 293 290 290 291 292 290 289 288 287
318 318 321 321 321 322 322 321 323 324 323 324 325 325 310 300 299 308 319 315 305 305 301 300 297 294 291 293 295 292 293 296 297 296 294 294 292 291 289 288 290 289 288 287 287
317 317 320 320 321 321 322 320 322 323 323 324 326 323 309 298 307 307 304 304 303 303 300 299 296 297 294 295 293 293 294 295 295 296 294 293 289 290 289 288 287 288 287 286 287
319 317 320 320 321 321 321 319 321 322 323 324 325 315 305 303 306 305 305 301 302 302 300 299 299 296 296 293 296 293 291 293 292 294 293 293 289 289 289 287 287 286 286 287 287
319 318 319 320 320 320 320 319 320 321 324 324 324 310 299 307 307 306 302 302 302 302 301 300 300 298 294 295 294 290 288 286 291 292 292 291 286 292 289 287 286 285 284 286 285
318 318 319 319 319 319 319 318 319 322 324 324 311 304 297 312 305 305 301 299 300 300 300 302 300 294 294 290 287 287 284 284 288 292 290 289 287 290 288 287 286 284 284 285 284
318 318 319 319 319 319 318 319 319 317 315 312 307 301 300 300 305 305 301 301 299 298 299 298 292 290 289 288 284 285 283 284 283 287 289 287 288 290 287 287 287 284 282 282 281
317 319 319 318 319 320 313 302 300 297 300 295 295 298 300 305 304 301 300 299 299 297 293 293 290 287 289 289 287 285 283 283 285 289 287 287 289 292 288 285 284 281 282 282 281
317 318 319 318 318 318 303 297 298 299 294 297 297 299 304 302 297 300 299 295 294 292 292 291 288 291 291 289 287 285 283 283 287 288 287 286 285 290 287 287 287 286 283 282 281
317 318 318 317 317 307 299 298 305 302 291 294 300 300 301 302 297 297 297 295 292 291 290 289 290 291 289 286 285 284 283 283 284 285 285 282 280 285 286 287 287 287 285 283 282
316 317 317 315 306 301 299 303 304 301 284 288 294 299 299 298 294 298 296 295 292 292 290 289 289 288 286 286 286 282 286 285 284 281 278 281 277 280 283 284 284 285 281 282 280
315 317 317 312 300 296 301 303 301 294 274 289 296 301 298 294 294 294 296 294 292 291 291 290 286 286 285 286 287 285 285 283 281 280 277 278 276 278 279 281 285 282 282 282 281
314 316 313 307 299 299 301 299 295 285 277 287 295 293 292 293 293 295 293 294 291 290 287 289 288 287 287 286 287 287 284 282 278 277 272 277 278 276 279 282 282 281 282 281 280
314 316 308 304 299 300 301 295 284 278 287 287 291 293 291 290 291 292 290 288 289 285 284 285 286 286 288 284 286 284 282 277 274 272 275 276 274 282 286 285 283 283 281 280 280
314 313 308 304 301 301 297 290 278 283 284 290 291 290 289 291 290 290 288 287 289 287 283 283 283 285 287 286 285 283 283 278 271 271 277 274 275 281 282 280 280 281 282 280 279
313 307 305 303 301 302 290 281 284 286 288 291 290 286 286 289 290 287 286 286 290 289 288 282 282 283 284 284 285 282 279 282 277 262 267 276 278 282 278 278 277 279 279 278 279
308 306 304 304 303 298 285 287 287 291 291 291 287 289 285 287 287 286 285 288 289 289 289 288 283 281 281 281 281 281 283 277 275 267 265 273 276 281 280 279 276 276 277 278 278
307 299 300 304 302 295 289 287 289 293 295 291 288 285 288 287 288 285 287 288 289 287 287 286 285 280 280 280 281 278 277 278 278 277 271 267 279 282 284 282 276 277 278 278 278
304 292 300 304 294 291 289 288 293 291 294 292 291 291 289 289 287 286 286 291 291 288 286 285 283 278 279 278 279 281 282 281 276 273 272 274 280 280 282 282 278 278 279 278 278
298 297 301 301 288 288 287 289 293 289 292 291 290 291 291 289 286 286 289 292 290 289 285 285 281 274 278 278 277 276 279 281 279 276 277 274 279 280 279 277 278 278 278 278 277
299 290 295 295 295 289 288 288 288 293 292 291 290 291 289 287 290 288 286 288 288 289 294 292 282 281 281 281 278 275 277 278 281 277 280 280 282 286 288 285 278 277 277 277 277
299 294 294 288 289 292 290 288 287 287 291 292 290 290 289 286 287 287 290 285 283 287 287 287 283 281 287 288 282 282 283 276 277 281 279 283 283 287 289 290 289 287 278 276 276
299 297 294 294 291 290 291 288 287 288 289 288 288 289 291 288 288 287 290 288 288 280 281 281 283 284 282 284 281 280 284 284 282 282 283 283 283 291 292 292 290 281 277 276 277
307 304 298 295 292 289 288 289 289 291 292 293 292 291 289 290 294 295 293 291 290 288 279 278 280 275 279 281 280 278 283 284 285 286 285 281 286 290 289 285 279 277 277 277 277

GFSSW_sfc_thetae_012.txt.gz
Theta_e
324 325 325 325 325 325 324 325 325 325 326 326 327 327 327 325 322 305 300 309 312 329 325 306 302 301 302 301 301 297 291 287 287 288 291 293 291 290 291 290 289 290 290 292 293
321 322 325 325 324 324 325 324 324 325 325 325 326 327 326 324 304 301 317 324 328 328 303 301 299 300 298 297 297 293 289 291 291 291 291 293 292 292 290 288 287 287 289 291 291
319 320 322 324 324 324 325 323 323 324 324 325 325 326 325 317 301 299 325 326 325 322 304 301 300 299 295 296 294 291 288 293 294 294 294 293 290 291 290 287 289 288 288 289 288
318 318 319 322 323 324 324 324 323 324 324 324 324 326 322 306 291 303 325 325 322 309 302 299 299 295 293 292 294 292 293 293 296 296 293 291 291 290 290 291 291 290 290 287 287
319 318 318 321 322 323 324 324 322 323 323 324 324 325 311 302 299 307 319 314 303 303 300 298 296 293 291 291 293 292 292 295 295 295 293 293 291 291 290 290 289 288 288 287 287
319 319 319 320 321 322 323 323 322 322 322 324 324 322 306 296 306 304 302 303 302 301 298 298 295 296 294 293 292 291 293 294 294 295 293 292 289 290 290 287 287 288 286 286 286
319 319 319 319 320 321 322 322 322 321 322 324 325 314 305 301 305 303 304 300 300 300 298 298 298 295 294 291 294 292 290 291 290 292 292 292 289 288 289 287 286 286 285 285 286
317 318 318 319 320 320 321 322 320 320 322 324 324 308 298 306 305 304 301 301 301 301 300 299 298 298 293 294 292 289 288 286 289 292 290 290 286 291 288 286 285 284 284 285 286
316 317 318 319 319 319 320 320 319 321 324 323 309 303 297 311 303 304 299 299 299 299 299 302 299 293 293 289 287 287 284 284 288 291 289 288 287 291 287 286 286 285 285 285 285
316 316 318 319 319 319 319 319 318 317 315 311 306 300 299 299 303 303 299 300 297 298 298 296 292 290 288 288 283 285 283 283 283 287 288 286 287 292 288 285 287 286 285 285 285
315 316 318 319 319 320 313 300 299 295 298 296 295 296 298 303 303 300 299 298 297 295 293 292 290 288 288 289 289 286 283 283 284 287 286 287 288 291 292 285 286 284 283 284 285
315 316 316 318 319 318 301 296 296 296 292 295 296 297 301 301 296 299 298 294 293 290 291 289 288 290 291 289 287 284 283 283 286 286 286 286 285 289 292 290 289 288 285 284 285
314 314 316 318 317 305 298 297 304 300 291 293 297 298 299 302 296 296 297 293 291 289 289 288 289 292 290 286 285 283 282 282 283 284 284 281 282 282 287 288 288 288 288 286 285
314 313 315 316 305 298 298 301 302 299 282 287 293 297 299 297 294 296 295 293 290 290 289 289 290 289 285 286 286 282 284 283 283 280 278 282 279 281 286 287 285 286 285 285 284
314 313 315 313 303 297 300 302 299 292 274 287 293 300 296 293 293 293 294 292 290 290 290 289 286 285 285 287 286 285 284 282 281 279 275 277 275 279 280 283 288 288 285 285 283
314 313 315 306 299 298 301 298 294 283 276 285 294 293 292 292 292 293 291 293 291 289 287 288 287 286 286 285 285 286 282 280 277 276 272 278 278 277 279 282 284 284 283 283 281
314 313 311 304 300 299 299 294 283 277 285 285 290 291 289 289 291 291 289 287 287 285 284 286 285 285 287 284 285 283 282 277 274 271 276 276 273 282 284 285 286 285 283 281 280
314 313 310 305 300 299 294 289 279 282 283 289 290 289 288 290 288 289 287 286 288 286 282 283 283 285 286 286 284 281 283 278 270 270 277 274 275 282 284 285 281 280 280 281 279
314 307 306 304 301 299 290 281 282 285 286 288 289 286 286 288 288 287 286 285 289 290 288 283 283 283 284 284 284 281 280 282 276 263 268 278 279 282 284 282 281 279 280 280 278
308 306 305 305 303 299 284 286 285 290 289 289 285 287 283 286 286 286 285 287 289 290 290 288 284 282 281 282 280 280 282 277 277 270 265 275 276 280 285 285 284 279 279 279 277
307 299 300 303 302 297 288 286 286 292 292 289 285 283 286 286 286 284 286 288 290 288 290 288 286 283 280 280 279 278 278 278 279 276 272 268 280 282 285 285 285 282 281 279 278
304 293 300 305 294 294 288 287 292 289 292 291 290 288 286 288 286 285 285 290 291 288 286 286 285 283 283 277 278 280 281 281 278 275 273 273 280 283 285 285 283 281 280 279 278
300 298 301 302 287 288 286 287 291 288 290 290 288 290 290 288 285 286 289 290 289 289 286 286 283 280 280 279 278 277 280 281 280 277 275 273 280 282 282 281 280 280 280 278 277
299 290 294 295 294 289 288 287 287 291 291 290 288 290 286 287 290 287 285 288 289 290 294 293 284 282 281 282 280 277 278 281 282 279 280 280 283 288 289 290 291 285 279 278 278
300 294 294 286 290 292 290 287 286 286 290 290 288 289 287 285 287 286 288 286 285 289 287 288 283 285 286 287 280 280 281 281 278 282 279 283 283 287 289 290 291 292 286 279 276
300 296 295 293 293 291 291 289 287 288 288 287 287 288 290 287 287 286 288 287 288 281 283 283 283 285 283 286 283 282 285 284 281 282 281 283 283 291 293 294 292 292 289 280 277
308 304 298 294 292 289 289 289 290 292 292 292 291 290 288 289 293 294 292 290 290 287 280 278 280 274 279 282 279 276 282 285 286 287 284 280 285 290 289 290 290 290 283 281 279

GFSSW_sfc_thetae_015.txt.gz
Theta_e
322 322 324 326 326 326 326 326 325 325 326 326 326 327 327 326 322 304 299 309 312 328 325 306 303 304 305 304 304 301 293 290 291 291 294 294 295 295 294 293 293 295 294 295 296
320 320 321 323 324 325 326 325 324 324 325 325 325 327 327 324 304 300 317 326 329 329 303 302 301 303 300 301 300 296 292 293 294 293 294 294 295 294 293 292 292 291 292 293 294
320 320 320 321 323 324 325 325 325 323 324 324 325 326 325 318 302 299 324 326 326 321 305 302 302 301 298 299 297 295 291 295 296 296 296 295 294 293 293 291 294 293 291 291 292
320 320 320 321 321 322 324 325 325 324 323 323 324 325 323 306 293 303 325 325 322 309 303 300 300 298 296 294 297 294 294 295 298 297 295 294 293 293 292 296 295 294 293 292 291
319 319 319 320 321 322 322 324 324 323 322 323 324 324 309 299 300 306 319 314 304 303 300 298 297 296 294 293 295 293 294 296 296 296 294 293 293 293 291 294 293 291 291 290 291
317 318 319 319 321 321 321 323 324 323 322 323 325 323 306 296 305 304 302 302 301 301 299 299 297 297 295 295 293 293 295 295 295 295 294 293 292 293 293 290 289 289 290 290 290
316 316 318 319 320 321 321 322 323 322 322 323 324 312 301 300 305 302 303 299 300 300 299 299 299 296 297 293 295 293 291 293 292 293 293 293 291 290 293 289 289 287 288 289 289
316 315 316 318 320 320 321 321 321 321 322 323 324 307 298 305 305 303 301 300 301 301 301 300 300 298 295 295 293 290 289 288 291 292 292 292 289 294 291 289 289 287 287 288 288
315 315 316 318 319 319 320 320 319 320 323 323 307 302 297 310 302 303 299 299 299 300 300 302 299 294 294 290 289 288 286 286 289 292 291 290 289 293 289 287 289 287 287 287 288
315 315 315 317 318 319 319 319 317 316 314 310 305 299 298 298 302 302 299 299 297 299 298 297 293 290 289 289 284 284 285 286 285 289 289 288 288 293 291 287 289 289 287 287 287
315 315 315 316 318 320 312 300 298 293 297 296 296 295 297 302 303 299 299 298 297 295 291 292 290 288 289 289 288 287 286 286 286 288 287 287 288 292 295 288 289 288 287 287 287
315 314 314 316 318 319 300 297 296 296 292 295 295 296 298 301 296 298 298 295 293 290 291 290 289 291 291 289 288 286 284 284 286 286 286 285 286 290 292 293 294 292 289 287 288
315 313 313 315 317 303 297 297 302 299 291 293 295 296 297 301 296 296 297 293 290 288 289 287 289 291 290 286 286 284 284 283 285 284 284 282 283 284 288 289 291 291 290 289 288
315 314 313 315 305 298 297 300 302 298 282 286 290 297 300 298 293 296 295 293 289 289 288 289 289 290 287 287 287 284 286 284 283 282 280 283 281 282 286 289 289 291 288 289 287
315 314 313 313 302 296 298 301 298 290 273 287 291 299 297 294 292 292 294 292 289 289 289 288 286 286 286 287 287 285 285 283 282 281 278 279 277 282 281 284 289 290 288 288 286
315 314 313 306 298 297 299 296 293 282 275 284 293 292 292 292 292 292 291 293 291 289 286 288 287 288 288 285 285 286 283 282 278 277 274 281 280 280 281 285 287 288 288 288 285
315 314 310 305 300 298 298 293 282 275 284 283 287 290 288 289 290 290 288 287 286 284 283 286 285 285 287 285 285 283 283 278 275 273 277 277 275 284 286 286 288 290 289 286 284
315 313 311 307 301 300 293 289 276 281 282 288 289 288 287 289 288 289 286 285 288 286 283 283 283 284 286 287 285 282 284 279 273 272 279 273 275 284 286 290 287 285 284 283 283
314 308 306 304 301 299 292 281 281 283 286 286 288 285 285 288 288 286 285 285 288 290 287 283 283 283 284 284 285 281 280 284 276 263 271 280 282 284 285 285 284 283 281 282 283
309 305 305 305 303 298 285 285 284 288 287 287 284 286 282 286 285 285 284 286 288 290 292 288 284 282 282 282 280 282 283 279 278 272 268 279 281 283 285 286 286 285 283 284 283
308 299 303 305 306 297 286 284 285 290 290 288 284 282 283 284 286 283 285 287 289 289 291 289 288 282 281 280 280 279 278 279 280 277 273 274 281 284 286 286 286 287 285 284 284
304 294 301 307 294 294 288 287 291 288 289 289 287 286 284 286 285 283 284 289 291 289 287 288 287 284 284 278 280 280 282 283 279 277 274 274 281 286 287 286 286 287 285 284 283
300 299 301 304 288 289 286 287 290 287 288 288 287 288 288 284 283 285 286 290 290 289 287 288 284 279 282 278 278 279 280 282 280 277 278 275 281 288 284 285 286 285 283 283 282
299 290 293 295 297 292 289 288 287 290 290 288 287 289 285 284 289 286 284 287 289 290 294 293 285 285 281 283 281 278 278 281 282 280 281 280 283 288 290 289 290 285 281 283 282
301 293 292 285 289 292 292 290 289 286 289 290 288 288 287 285 286 285 287 287 286 289 288 288 284 286 287 288 285 281 281 282 279 282 280 284 283 287 290 291 292 293 292 290 281
301 295 295 292 293 290 291 289 288 291 289 287 287 289 289 286 287 285 287 287 287 282 285 285 283 286 283 286 285 282 284 285 283 283 282 283 283 290 292 292 292 292 292 291 287
308 306 297 294 291 288 288 289 291 292 293 292 291 289 288 289 292 293 293 291 290 288 283 282 282 279 278 284 282 277 282 285 286 288 286 282 287 291 289 290 290 291 291 291 291

GFSSW_sfc_thetae_021.txt.gz
Theta_e
323 323 323 324 324 325 325 326 326 327 326 326 325 327 327 327 324 315 310 315 318 327 323 314 313 313 316 313 314 312 303 302 302 301 303 306 304 306 306 306 306 307 307 306 310
320 321 322 323 323 324 324 324 325 326 326 325 325 326 327 326 317 312 321 324 325 327 313 311 311 312 311 311 311 308 304 303 306 305 304 305 305 306 302 303 305 305 308 304 306
318 318 320 321 322 323 323 324 324 325 325 325 324 325 325 323 311 312 325 326 325 322 314 312 312 311 309 310 309 307 303 305 306 306 305 305 304 307 303 303 306 306 308 304 304
317 317 317 318 320 322 323 323 324 324 324 324 324 325 324 318 302 312 325 324 324 318 312 310 310 308 307 306 309 303 307 306 306 305 304 303 306 303 304 306 309 310 311 307 304
317 316 316 316 318 320 321 322 323 324 324 324 324 325 319 310 309 314 319 318 315 312 310 309 309 309 305 307 306 303 306 305 306 305 304 305 303 304 305 309 310 308 306 307 304
316 316 315 316 317 319 320 321 322 323 323 323 323 323 314 303 314 314 311 311 311 311 309 310 309 310 306 305 304 305 304 304 306 305 304 301 303 302 306 309 308 308 304 305 305
317 316 315 315 316 317 318 320 321 322 322 322 323 320 310 307 315 313 311 310 310 310 308 310 311 308 308 305 306 304 300 304 304 304 302 303 299 301 306 306 305 306 306 305 305
316 316 315 315 316 316 317 320 321 321 322 323 324 317 306 314 317 310 311 309 310 311 310 310 310 309 306 306 303 301 301 297 304 303 302 301 296 304 308 306 303 305 306 305 305
316 315 315 315 316 316 317 319 320 320 322 323 318 314 304 313 310 313 312 307 309 309 310 309 310 307 304 301 300 301 296 298 301 303 301 300 298 304 306 304 303 305 306 306 305
315 315 315 315 315 316 317 319 319 318 318 316 313 307 308 305 310 310 309 310 307 308 306 306 306 302 302 300 293 296 297 298 298 301 300 298 297 302 305 304 303 303 304 306 307
316 315 315 315 315 315 316 312 308 306 309 306 307 306 305 310 311 308 308 306 307 305 300 304 299 297 300 302 301 300 297 296 299 302 298 298 298 300 303 303 303 304 304 305 306
316 316 315 315 315 316 315 306 307 306 298 305 305 305 307 311 305 307 307 302 301 298 302 299 295 301 302 301 300 299 296 296 299 301 296 297 296 300 301 302 303 303 303 304 306
316 316 315 315 315 313 308 307 312 311 300 301 305 303 304 307 303 304 304 303 300 298 299 296 299 300 299 299 296 296 295 296 295 299 296 294 293 296 300 301 302 302 304 304 304
316 316 315 315 311 312 307 310 313 310 293 295 297 302 304 305 298 304 306 303 300 297 298 298 301 299 297 295 297 293 299 298 296 294 290 295 287 296 298 299 299 301 301 303 303
316 316 315 314 309 309 307 311 311 305 284 296 296 305 305 299 299 298 302 301 297 297 298 296 298 295 294 296 298 295 294 295 295 293 292 292 289 293 295 294 295 298 300 304 306
316 315 314 312 312 311 310 309 306 291 283 292 298 297 298 299 297 297 298 301 300 297 298 296 297 297 298 294 296 295 293 292 292 291 285 291 291 291 294 294 298 300 302 304 302
316 315 313 314 308 311 310 305 290 284 293 293 294 297 296 297 296 295 294 293 293 289 291 296 295 297 295 293 293 293 292 288 288 287 285 294 290 293 297 297 298 299 301 302 301
316 315 313 313 315 313 306 296 283 290 293 296 295 296 294 297 296 295 294 292 295 295 292 291 289 295 295 296 296 291 293 289 284 284 287 291 287 292 299 300 300 301 301 300 299
316 313 311 313 313 311 298 286 289 293 296 294 295 291 292 295 295 295 294 294 297 296 290 290 290 292 295 294 297 291 287 295 290 288 285 289 293 298 298 297 298 297 297 298 298
313 310 308 313 308 304 292 288 295 298 297 295 290 293 290 293 292 293 294 298 296 299 299 295 289 293 287 291 291 291 293 288 289 283 281 286 289 291 294 294 296 295 296 298 300
312 302 308 309 307 297 285 287 296 300 297 291 290 292 293 292 294 292 292 297 299 298 298 296 293 290 288 287 290 286 287 287 288 289 284 282 287 295 294 296 296 297 296 298 301
308 296 307 307 294 292 287 292 296 295 295 292 293 292 291 292 291 291 292 296 300 298 291 295 293 288 291 294 292 293 292 291 286 284 286 286 286 296 297 297 297 297 298 300 300
302 301 305 306 290 287 292 292 295 296 295 291 289 291 292 288 286 291 293 297 296 296 293 293 288 284 286 288 287 287 290 290 292 289 285 283 286 296 298 297 297 297 298 299 298
303 293 294 296 299 296 290 291 291 298 296 296 290 292 289 287 290 287 290 295 297 295 295 295 289 287 283 287 290 287 288 290 289 285 285 286 288 293 295 296 298 299 300 300 299
301 297 294 287 289 293 294 293 292 291 296 296 292 289 288 286 287 286 290 292 293 292 293 292 285 288 289 290 290 288 289 290 286 288 285 288 289 293 295 296 298 298 298 298 298
293 297 295 294 296 292 291 290 290 294 295 293 291 293 291 288 290 291 292 290 290 289 289 291 284 286 284 288 288 285 288 289 289 289 289 288 287 295 296 297 296 297 298 297 297
297 295 288 288 291 290 290 291 292 296 297 298 296 293 292 291 294 297 298 298 295 290 287 286 285 283 280 287 286 281 286 288 289 291 290 286 291 296 296 296 297 298 298 298 298

GFSSW_sfc_thetae_024.txt.gz
Theta_e
321 322 323 324 324 325 325 326 325 326 326 327 326 327 327 327 325 316 309 318 320 327 322 315 313 312 313 312 312 310 298 296 299 298 298 301 299 302 301 298 300 304 300 301 305
319 319 320 321 322 323 324 324 325 325 325 326 325 326 326 326 316 313 323 328 328 327 315 310 309 310 307 309 309 303 299 301 301 300 298 301 300 300 297 298 299 300 302 303 303
318 318 318 319 320 322 323 323 324 324 325 325 325 325 325 323 312 312 329 328 327 324 314 312 311 310 306 308 306 303 299 302 303 302 302 301 300 302 298 297 299 300 302 300 300
317 317 317 317 318 320 321 322 323 324 324 324 324 324 324 320 300 314 328 325 325 318 312 310 309 306 303 303 307 299 304 304 305 303 301 299 301 300 300 300 303 303 304 301 300
317 316 316 316 317 319 320 321 321 323 323 323 324 324 321 309 308 315 323 322 314 313 309 308 305 306 303 303 304 300 302 304 303 302 301 302 299 299 299 302 305 304 302 300 301
316 316 316 316 316 318 319 319 321 322 322 322 323 323 314 301 314 314 310 311 312 310 307 307 306 306 303 301 300 301 302 301 302 302 302 299 298 299 300 303 303 303 300 301 301
317 316 315 315 316 317 317 318 320 321 322 322 323 321 309 305 313 312 310 309 309 309 307 308 308 305 306 302 304 301 296 299 300 301 299 300 295 297 302 301 301 301 301 300 301
317 316 316 315 316 316 317 318 319 320 322 323 324 318 304 314 312 310 310 308 310 310 309 309 308 306 304 303 300 296 296 291 298 300 299 298 291 300 302 301 299 299 299 300 300
316 315 316 316 316 316 317 317 318 321 322 323 318 314 304 315 310 311 310 307 307 308 309 308 309 303 302 295 293 296 290 292 296 300 297 295 292 298 299 297 298 298 299 300 301
316 315 316 316 316 316 317 318 320 318 318 320 314 306 307 305 310 310 308 309 306 305 304 303 301 297 296 294 287 290 291 293 292 296 296 293 293 298 299 298 297 297 298 299 300
316 316 316 316 316 317 314 313 306 307 309 304 306 304 305 309 311 307 307 305 305 302 295 299 294 291 294 297 297 296 294 292 296 298 295 294 294 297 299 298 297 299 300 300 300
317 317 317 317 317 317 313 306 306 305 297 304 304 306 308 310 304 306 306 299 299 294 297 295 292 297 299 298 295 294 292 292 295 297 294 293 293 296 297 298 299 299 299 300 298
318 317 316 316 316 314 309 307 312 311 298 299 302 302 303 306 301 302 302 300 297 294 295 292 295 300 297 295 293 293 291 292 291 294 291 289 288 291 295 298 299 300 300 300 297
318 317 316 315 311 311 307 310 312 310 290 294 298 302 304 304 297 305 304 301 297 294 295 294 298 297 294 293 294 289 295 293 292 288 285 291 281 289 292 293 294 297 297 296 296
317 316 316 314 309 307 307 310 309 305 280 297 296 306 304 298 298 298 301 299 295 294 294 292 292 292 292 293 295 292 293 290 290 288 286 287 283 288 293 291 293 295 297 298 297
317 317 315 312 312 311 311 309 306 288 279 293 298 296 297 297 297 297 297 298 298 294 294 293 295 293 293 293 293 292 290 289 287 285 279 286 285 284 288 292 292 294 295 297 297
317 316 313 315 309 311 310 304 287 281 294 292 293 295 295 294 295 293 292 290 288 285 286 290 292 293 293 289 290 290 287 280 278 277 279 288 285 289 291 292 293 294 295 295 296
317 316 313 314 314 310 305 295 281 293 292 296 294 295 292 294 294 293 291 288 292 290 287 286 286 292 292 292 290 287 289 281 275 277 283 284 281 287 294 296 294 295 297 295 295
317 314 311 312 311 310 298 284 288 296 298 295 295 290 290 293 293 293 290 290 292 292 287 286 287 290 291 292 293 288 283 290 282 277 277 285 287 291 292 293 293 294 293 292 293
313 310 308 314 311 304 292 289 292 301 300 297 290 291 287 290 289 291 291 294 293 295 296 291 286 289 286 289 288 288 290 282 283 272 272 282 281 285 288 292 291 290 291 291 293
311 305 309 313 309 298 286 289 296 301 301 296 293 289 288 287 289 289 290 294 295 295 296 293 289 286 286 284 285 283 283 285 286 284 278 278 282 288 290 291 291 291 293 292 293
308 297 307 309 295 294 289 293 297 297 299 295 292 292 291 292 289 288 287 290 295 295 290 293 290 284 288 290 289 289 288 287 282 281 281 283 284 293 291 292 292 291 293 293 294
302 302 305 306 291 290 290 293 296 295 296 295 293 294 294 289 286 290 291 296 296 293 291 292 286 280 283 288 285 284 287 288 288 286 283 281 284 294 296 292 291 291 291 292 293
298 293 295 297 300 295 293 290 290 297 295 296 295 295 291 288 291 288 289 292 294 295 296 295 287 284 280 284 288 284 286 287 287 283 283 283 286 291 293 294 295 296 293 293 292
296 293 295 288 289 293 295 294 291 290 296 298 294 293 289 286 289 288 289 290 293 295 292 289 283 285 287 288 288 287 286 287 285 285 282 284 285 289 292 293 295 296 296 294 293
290 291 290 289 290 289 290 290 290 293 294 292 292 294 293 289 291 289 289 290 289 290 290 290 282 284 282 286 286 284 286 287 287 287 287 287 286 293 294 295 294 295 295 295 295
295 295 289 286 286 286 287 289 290 292 293 296 295 294 292 293 295 296 298 297 295 292 287 286 284 282 279 284 284 280 284 285 287 289 288 284 289 294 293 294 295 296 296 296 296

GFSSW_sfc_thetae_027.txt.gz
Theta_e
320 320 321 322 322 324 325 325 325 325 325 325 325 326 326 326 325 315 307 315 317 328 321 310 308 307 307 306 306 303 292 290 293 294 295 298 296 298 299 297 298 302 298 300 303
318 318 319 319 320 321 323 324 324 324 324 324 324 325 326 325 315 309 320 334 331 328 311 306 304 304 301 303 303 299 292 294 298 296 294 297 297 298 296 295 296 298 298 301 301
318 317 318 318 319 320 321 322 322 323 324 324 324 324 324 322 310 308 330 332 331 325 311 307 306 305 300 302 300 298 294 298 299 299 299 297 296 299 296 295 296 298 297 299 297
317 317 317 317 317 319 320 321 321 322 323 323 324 324 323 317 291 310 329 329 328 314 309 305 303 301 298 298 302 296 300 301 302 300 299 296 298 297 297 299 301 300 301 299 297
317 317 317 316 317 318 319 319 320 321 322 322 323 324 317 304 304 315 325 324 313 311 305 303 300 300 297 298 299 297 298 301 301 300 299 299 297 296 297 299 301 301 300 298 298
317 317 317 317 316 317 318 318 319 319 321 321 323 323 306 297 309 313 308 310 309 306 303 303 302 302 299 299 295 297 298 299 299 299 299 298 295 297 297 300 299 299 298 298 299
318 317 316 317 316 316 317 317 318 319 320 321 323 319 307 300 309 309 307 306 306 305 303 303 304 301 299 298 300 298 295 295 296 298 297 297 294 295 301 298 298 298 298 297 298
317 316 316 316 316 317 317 318 318 319 320 322 324 314 298 310 306 307 306 304 305 305 305 305 304 303 300 300 297 292 291 288 294 296 297 297 290 296 300 297 297 297 296 296 298
317 316 316 317 317 317 317 317 318 319 321 323 314 308 300 314 307 308 306 304 304 304 305 307 305 299 298 292 289 289 285 287 292 297 295 294 291 295 298 296 296 295 296 297 297
317 316 316 317 317 317 317 318 317 318 317 319 315 301 303 301 307 306 304 305 302 302 301 300 297 293 292 289 284 285 286 289 289 293 292 291 292 296 296 294 295 294 295 297 298
317 316 317 317 317 318 314 306 300 299 303 298 299 300 302 306 307 304 304 303 303 299 292 295 289 288 291 293 293 289 288 287 291 295 293 292 293 295 298 294 295 298 298 297 298
318 317 317 317 318 318 309 301 301 301 292 300 300 302 305 306 300 303 304 297 296 291 293 291 288 294 294 294 293 291 290 289 292 295 292 291 291 295 295 297 295 297 298 299 300
318 317 317 317 317 311 304 302 307 306 294 298 299 297 298 304 299 300 301 297 293 291 292 290 291 297 295 293 291 291 288 290 289 291 290 288 287 290 294 296 297 298 299 300 300
318 317 317 316 310 306 302 305 306 304 284 290 294 299 301 300 294 302 301 298 293 291 291 290 295 294 291 291 293 289 292 291 290 286 284 287 283 287 291 293 295 297 297 298 298
318 317 317 315 305 303 305 306 303 298 275 292 294 303 301 294 294 295 298 296 291 291 291 289 289 290 290 292 292 291 291 289 287 285 283 285 282 285 291 289 292 295 297 298 296
318 318 316 311 306 307 307 304 299 283 276 288 294 293 293 295 294 294 294 296 295 291 291 290 292 291 292 291 292 291 288 287 285 283 279 284 285 284 285 291 291 296 297 297 297
318 317 313 314 307 308 306 299 287 280 290 289 290 293 291 291 291 291 289 288 286 283 282 287 289 292 292 288 289 289 285 278 276 275 278 285 283 288 290 292 294 295 296 297 294
317 317 314 314 310 308 306 295 284 290 288 293 291 291 289 291 291 290 287 285 288 286 284 283 283 288 291 292 287 286 288 279 273 275 282 281 279 285 293 296 294 295 295 293 293
316 314 312 313 313 309 300 287 291 292 297 296 297 289 287 290 290 289 286 286 288 290 285 284 284 288 289 290 292 285 283 290 282 273 275 283 285 290 290 291 291 292 291 291 292
312 310 309 313 312 305 293 292 293 298 299 297 291 292 289 287 287 290 288 290 290 292 294 289 284 288 286 287 287 287 288 281 282 275 271 280 281 285 286 292 293 289 290 290 291
308 302 308 312 309 298 288 291 296 299 299 296 294 293 290 290 288 288 288 289 291 291 293 290 288 286 285 284 285 283 284 285 285 282 280 279 283 288 288 291 290 290 290 290 291
305 295 309 310 296 295 292 294 298 297 299 298 294 293 293 294 293 292 291 291 294 293 289 291 288 283 285 288 288 288 289 288 283 281 280 281 283 293 291 290 291 291 291 291 292
298 300 306 306 291 292 293 294 296 295 296 296 294 294 296 292 288 291 293 298 299 296 291 292 285 281 282 287 284 284 285 287 287 284 282 279 282 293 293 290 290 289 290 290 291
294 290 296 298 299 295 293 292 291 296 295 296 295 295 293 291 293 289 289 292 293 293 297 295 285 284 281 285 287 285 285 285 285 280 282 282 285 290 292 293 295 296 298 296 295
291 286 291 286 291 293 294 293 291 290 295 296 293 293 292 289 290 289 292 292 292 294 293 292 283 285 287 288 289 287 287 287 285 286 282 284 285 288 291 293 294 296 296 295 293
286 285 290 286 289 289 290 289 289 289 291 290 290 292 291 289 291 289 291 291 290 287 289 290 284 287 284 286 286 284 287 287 287 287 287 287 287 294 296 297 296 296 296 295 295
289 291 289 284 282 282 282 286 287 288 288 291 287 284 284 287 290 289 290 289 290 290 290 288 284 284 281 285 284 280 285 286 287 289 288 283 288 293 293 294 295 295 297 296 296

GFSSW_sfc_thetae_030.txt.gz
Theta_e
319 319 320 321 321 322 323 324 324 324 324 324 325 324 325 326 325 312 305 312 316 330 323 309 307 306 305 304 304 300 290 288 290 292 294 295 294 297 297 296 297 300 297 298 301
318 318 318 319 320 321 322 322 322 323 323 324 324 324 324 325 312 307 319 332 332 331 308 304 302 303 300 301 302 297 289 290 295 295 293 296 295 296 294 294 295 297 297 299 300
317 317 318 318 318 319 320 321 321 321 322 323 323 323 324 321 304 305 330 335 332 326 309 306 304 303 298 299 299 297 293 296 299 298 298 296 294 297 295 294 296 297 297 297 296
317 317 316 317 317 318 319 320 320 320 321 322 322 323 323 314 290 306 330 331 331 312 307 303 302 299 297 296 300 294 298 298 300 300 297 295 296 295 295 299 299 299 298 297 296
318 318 317 317 316 317 318 319 319 320 320 321 322 323 314 301 302 315 328 327 314 309 304 302 299 299 296 296 297 296 297 299 300 299 297 297 297 295 295 297 299 299 298 297 298
318 318 317 317 316 317 318 318 318 319 320 320 322 322 304 293 306 314 310 310 306 305 302 301 300 300 297 298 295 295 297 298 298 298 297 296 295 295 299 297 298 298 297 297 298
318 317 317 317 317 317 318 318 318 318 319 320 322 318 306 298 307 310 307 305 305 304 301 301 301 298 297 296 299 297 294 295 297 296 296 296 293 293 301 296 297 297 296 296 298
318 317 316 317 318 318 319 318 319 319 319 320 323 311 296 307 305 305 304 303 304 304 304 303 303 300 298 299 296 291 290 287 292 294 295 296 291 296 298 296 296 296 295 295 297
317 316 317 317 317 318 318 319 319 318 319 322 311 304 298 312 303 306 304 302 303 303 303 306 302 296 297 291 287 286 283 285 290 295 294 292 290 296 296 294 295 294 295 296 297
318 317 317 317 318 318 319 319 317 316 316 318 314 300 301 300 305 305 303 304 301 301 299 298 295 291 291 287 282 283 283 286 287 291 290 290 291 296 297 294 293 293 293 294 297
318 318 318 318 318 319 314 304 298 295 301 297 297 297 300 304 305 302 303 302 301 296 290 293 288 286 291 291 292 286 286 285 289 292 290 290 292 295 298 295 293 296 297 296 295
319 319 318 318 318 319 307 301 299 300 291 299 298 300 303 304 298 301 303 297 295 290 291 289 286 292 292 291 290 289 288 287 291 293 290 291 291 294 296 298 298 296 297 298 300
319 318 318 318 318 309 303 301 306 304 293 295 298 296 296 302 297 298 300 296 292 290 290 289 290 294 292 289 289 288 287 288 288 290 288 287 287 288 292 296 298 299 299 299 300
319 318 318 317 310 305 301 304 305 303 283 288 294 296 299 300 293 299 299 296 291 290 289 289 294 292 290 289 290 287 291 291 289 284 283 287 282 285 289 291 293 296 297 297 298
319 318 318 316 306 305 305 305 303 295 278 292 293 302 300 292 293 294 296 295 290 289 289 288 289 288 288 290 291 290 290 288 285 283 281 283 281 285 290 289 292 296 296 297 299
319 318 317 312 306 307 306 302 297 286 280 288 292 292 292 293 293 293 293 295 293 290 289 290 290 290 290 290 290 289 287 286 283 282 279 283 283 283 284 289 290 294 297 297 298
317 318 314 313 307 309 306 301 291 284 292 288 288 291 290 289 290 290 289 288 286 282 281 284 287 290 292 288 288 288 284 278 275 275 278 284 281 287 288 290 292 294 295 297 298
314 316 314 316 311 308 307 296 285 292 288 293 291 290 288 290 290 289 286 284 287 284 282 281 283 287 289 290 287 286 286 279 271 276 281 280 278 287 291 294 294 294 296 296 296
314 314 312 314 312 311 302 290 292 295 295 293 295 289 286 289 289 287 284 285 287 288 284 282 284 287 289 289 291 284 282 289 279 269 273 283 284 290 289 290 291 292 293 291 290
308 309 309 313 312 306 296 293 295 298 298 297 292 293 286 288 289 289 287 288 288 289 292 288 283 287 285 286 287 287 288 280 279 271 270 278 279 285 288 290 290 289 289 292 292
306 300 304 312 309 299 290 292 295 299 299 296 294 293 291 291 291 291 291 291 290 290 291 289 287 287 284 284 285 283 282 283 284 282 279 278 282 293 292 288 289 291 290 290 289
302 293 307 310 296 296 293 295 297 297 299 298 297 296 294 294 292 293 293 295 292 291 288 292 288 284 286 292 288 286 286 286 282 280 282 283 283 295 295 295 289 289 289 289 290
296 298 307 307 290 292 294 294 297 295 296 296 294 295 295 292 288 291 293 298 298 294 291 292 286 282 283 286 289 285 288 287 288 286 282 279 282 295 295 294 292 289 294 295 294
291 288 297 299 299 294 292 292 292 296 295 295 295 296 293 291 294 290 291 294 294 294 298 296 289 285 282 285 286 283 283 285 285 281 282 282 284 289 292 292 294 295 296 297 295
288 285 291 287 291 292 293 292 289 289 294 295 292 292 291 287 289 289 292 292 294 295 293 292 285 288 287 288 289 289 288 288 286 287 283 284 285 288 291 293 295 296 296 295 294
285 284 287 285 286 287 289 288 288 289 290 289 288 286 287 284 286 283 284 285 285 287 286 289 284 286 284 287 286 284 287 287 287 287 287 288 287 294 295 296 296 296 297 296 297
287 290 288 282 281 279 280 284 285 285 287 289 284 281 280 283 284 285 285 286 286 284 283 284 283 283 280 284 284 281 285 286 287 288 288 284 289 294 293 293 294 295 295 294 291

GFSSW_sfc_thetae_033.txt.gz
Theta_e
319 320 320 320 320 321 322 323 323 323 323 324 324 324 324 325 324 312 303 311 315 330 318 307 306 304 303 302 302 297 289 287 289 290 293 294 293 295 296 294 296 299 296 297 299
318 319 319 319 319 320 321 322 322 322 322 323 323 324 324 324 311 305 317 329 332 330 307 304 301 301 299 300 300 296 287 289 292 293 293 294 294 294 295 293 294 296 296 298 299
318 318 318 318 318 319 320 320 320 321 321 321 322 323 323 320 301 299 328 332 334 324 307 304 303 301 296 298 298 296 292 294 297 298 296 295 293 295 293 293 295 296 298 297 296
318 318 318 318 318 318 319 319 320 320 320 321 322 322 323 311 290 303 331 334 332 310 306 302 300 297 295 295 298 293 297 297 298 299 296 294 295 294 294 299 299 298 296 296 295
319 319 318 317 318 318 319 319 319 319 319 320 321 323 312 298 299 312 328 328 312 306 303 300 298 297 294 294 295 294 296 298 298 298 297 296 296 295 295 297 298 297 296 296 297
319 318 318 318 318 318 319 319 319 319 319 319 321 322 302 292 303 315 313 309 306 304 300 300 297 299 295 295 294 294 295 296 296 297 296 296 295 294 300 295 297 297 296 295 296
319 318 318 318 318 319 319 319 319 319 319 319 320 317 302 298 306 310 307 304 305 304 300 300 300 298 295 294 297 295 293 293 294 295 295 294 293 292 300 296 296 295 296 295 296
318 318 317 318 318 319 320 320 320 320 319 319 321 309 294 305 304 304 303 301 303 303 303 302 302 299 297 297 294 290 289 286 291 293 293 294 290 296 296 295 296 295 293 294 296
318 317 318 318 318 318 319 320 320 319 319 322 309 302 296 310 302 304 303 301 301 301 301 306 301 295 294 289 286 284 282 283 287 294 292 291 289 294 293 292 294 294 294 294 295
318 318 318 318 319 319 319 319 317 315 317 317 312 297 299 299 303 303 301 302 299 299 297 296 294 289 289 286 281 282 281 284 284 289 289 288 289 294 296 293 294 295 294 295 296
319 319 319 319 319 320 315 303 296 294 301 297 299 297 297 302 304 301 302 301 299 295 289 292 287 285 289 290 291 284 283 283 289 291 288 289 290 293 297 295 293 295 297 298 299
319 319 319 319 319 319 305 300 298 298 292 297 298 299 301 303 297 299 302 296 294 290 290 288 285 291 290 289 289 287 286 286 290 292 287 288 288 292 294 295 297 298 298 297 299
319 319 319 319 318 309 302 300 305 302 291 294 297 295 296 300 296 297 299 295 292 289 288 287 290 293 290 288 287 285 284 287 286 288 287 285 286 288 292 294 297 298 299 299 298
320 319 319 319 310 305 301 303 304 300 285 289 292 294 297 298 292 297 297 295 290 289 288 288 292 290 287 287 288 285 289 289 288 283 282 285 280 284 289 289 291 294 296 297 298
319 319 319 317 306 306 305 304 302 294 281 293 291 300 298 291 292 293 295 293 289 289 288 286 287 286 286 289 289 287 289 287 285 282 280 281 279 283 287 287 290 294 296 297 299
318 319 318 313 308 309 307 304 298 288 283 290 291 290 290 292 291 292 292 294 292 289 288 288 289 289 289 289 289 288 286 284 282 281 277 283 282 283 283 287 289 291 293 295 295
314 315 314 314 309 308 307 301 292 286 293 289 287 290 287 287 289 289 288 287 285 282 281 283 286 289 290 286 286 287 283 277 275 274 279 282 281 287 288 291 290 292 293 295 294
313 314 314 316 312 311 308 298 287 293 291 293 290 288 287 289 289 288 284 283 287 283 280 280 283 286 288 288 286 284 285 278 270 275 281 280 278 288 290 291 292 291 291 292 292
312 312 313 313 312 312 303 291 291 294 296 294 296 292 288 288 290 286 284 284 287 287 284 282 282 286 287 288 289 283 281 287 279 269 273 282 284 291 292 288 289 290 289 289 290
304 306 307 314 312 308 297 292 295 299 297 296 291 293 286 286 285 287 286 287 287 288 289 286 283 286 284 285 286 286 286 280 279 272 270 278 279 282 288 289 290 290 291 292 291
302 298 303 313 310 300 290 293 296 301 300 296 294 293 292 291 291 292 292 292 291 289 289 289 287 286 287 285 287 282 281 282 283 282 279 277 281 292 292 294 292 291 290 290 291
298 290 306 311 296 296 292 295 297 297 299 298 297 296 293 293 291 292 291 294 294 293 289 290 288 282 286 291 288 286 286 286 282 280 282 282 283 293 295 296 295 295 292 290 290
294 294 307 305 289 290 294 294 296 295 295 296 294 296 296 292 288 292 292 296 297 295 291 291 286 282 283 285 286 284 287 288 288 286 281 277 281 294 294 295 296 295 294 290 290
290 285 295 299 298 293 291 291 291 296 295 296 294 296 293 290 292 289 290 293 293 293 296 296 290 286 281 284 287 283 284 286 287 282 282 283 284 289 292 292 294 295 296 294 294
286 283 289 285 289 291 291 290 287 288 292 294 292 292 291 287 287 287 287 286 289 291 291 289 284 286 287 286 286 286 286 287 285 285 282 284 285 289 291 292 294 296 296 295 291
283 283 286 284 285 284 287 288 288 288 290 289 288 285 286 285 285 281 279 282 281 284 282 285 279 282 279 282 283 283 286 286 286 286 286 287 286 293 292 289 289 289 288 287 286
286 287 287 281 281 278 281 282 283 283 286 287 282 280 279 282 283 283 283 283 282 279 278 279 278 276 273 278 277 274 280 282 283 286 285 281 281 281 280 280 281 284 283 283 284

GFSSW_sfc_thetae_036.txt.gz
Theta_e
320 320 320 321 320 321 322 322 323 323 323 323 324 324 324 324 323 311 301 310 313 330 318 306 305 303 302 301 300 296 290 286 288 288 292 293 292 294 295 296 296 298 296 296 299
319 319 320 320 320 320 320 321 321 321 322 322 322 323 323 323 309 304 316 328 332 327 305 303 300 300 298 298 299 295 287 288 292 291 292 293 293 294 296 294 293 296 297 297 300
319 319 319 319 319 320 320 320 320 320 321 321 321 322 323 319 298 297 328 329 334 322 306 302 302 300 295 297 297 294 292 292 294 295 295 294 293 295 293 293 295 296 297 296 297
319 319 319 318 319 319 320 320 320 320 320 320 321 322 323 309 290 299 331 332 332 308 304 301 299 296 294 294 297 293 296 295 297 297 295 294 294 293 294 300 299 298 297 296 296
319 319 319 318 318 319 320 320 320 320 320 320 320 322 310 295 297 314 329 328 309 305 302 299 297 296 293 293 293 293 294 297 297 297 296 296 295 294 294 298 297 296 296 296 296
319 318 318 318 319 319 320 320 321 320 320 320 320 321 299 292 303 317 315 307 305 302 300 299 297 298 294 294 294 292 294 295 295 296 296 295 297 293 296 296 297 296 295 295 295
319 318 318 318 319 319 320 320 321 321 320 320 319 316 300 297 306 310 308 304 304 302 299 299 299 298 295 292 295 293 291 292 292 293 293 294 292 291 298 294 295 295 294 295 294
319 318 318 318 319 320 320 321 321 320 320 320 319 307 294 303 304 304 302 300 302 301 300 300 299 297 294 294 292 287 288 285 289 291 291 293 287 296 295 292 294 293 293 293 295
318 318 318 319 319 319 320 320 318 321 320 320 308 298 293 309 301 303 301 300 300 300 300 304 299 294 293 288 285 283 281 282 286 292 291 290 287 292 294 291 293 294 295 295 295
318 318 319 319 319 320 320 318 317 315 317 317 310 295 298 297 302 301 300 301 298 298 297 295 292 289 287 285 280 282 280 282 283 289 286 286 287 292 296 292 293 296 296 296 298
319 319 319 319 320 321 312 300 297 295 298 296 296 294 298 300 302 299 301 300 298 294 289 290 287 285 289 288 286 283 282 281 287 290 286 287 289 291 294 294 294 295 295 296 297
320 320 320 319 320 319 304 299 296 296 292 298 296 299 301 301 296 297 300 295 293 289 289 287 284 290 289 288 288 286 283 284 288 291 287 287 287 290 292 294 295 296 296 297 296
320 319 319 319 319 310 301 299 304 302 291 295 296 294 295 300 295 297 298 294 291 288 287 286 288 291 289 286 286 283 283 285 284 287 286 284 284 286 290 293 295 296 297 298 296
320 320 320 319 312 305 302 302 303 298 288 290 291 294 296 296 290 296 297 295 289 288 287 286 290 289 286 286 286 284 287 287 285 282 279 285 280 284 288 290 290 293 293 293 293
319 319 320 319 308 309 305 303 301 294 282 293 290 298 296 290 291 292 295 292 288 288 287 286 286 285 285 287 288 286 287 286 283 281 278 279 278 283 285 286 289 291 292 293 293
316 318 317 313 309 309 306 304 299 291 284 291 290 289 290 290 290 291 291 293 291 288 286 287 288 288 288 288 289 287 285 284 281 280 276 281 281 282 283 286 287 289 291 292 293
313 314 315 315 309 309 307 306 293 286 295 289 286 289 287 286 288 288 287 286 285 281 280 282 285 288 288 285 285 285 282 277 275 274 278 280 279 287 287 288 289 292 293 293 292
311 313 314 316 311 312 310 300 285 293 293 296 292 289 287 289 290 287 284 283 286 284 280 280 283 285 287 288 286 283 284 277 272 274 282 278 278 286 290 291 291 290 290 291 290
310 310 311 314 312 312 304 291 291 294 296 295 295 292 291 291 291 289 285 285 286 287 285 281 281 285 286 286 288 282 281 286 281 273 272 281 285 291 291 289 288 288 289 289 290
302 304 303 314 313 308 298 292 294 298 297 296 291 293 286 288 287 286 286 286 286 287 290 287 284 287 285 286 285 285 285 279 278 275 274 279 282 284 288 289 289 289 290 290 291
300 294 301 311 311 301 290 291 296 300 299 296 294 293 292 291 291 290 289 291 289 289 289 289 288 287 286 283 283 283 283 283 283 281 277 277 281 292 291 289 289 289 290 291 291
297 286 305 312 295 295 289 293 296 297 299 297 297 295 293 293 292 291 290 294 293 294 290 290 289 284 286 290 289 289 288 288 282 280 281 281 282 294 293 293 292 293 295 293 291
291 292 305 306 287 289 292 292 295 293 294 295 293 295 295 291 288 291 292 296 295 293 291 292 286 281 282 284 284 284 285 287 287 286 281 278 281 292 293 294 294 293 293 290 288
288 281 290 298 296 291 289 289 289 295 294 296 294 295 292 290 292 289 289 292 291 292 295 295 287 284 280 283 286 284 286 285 285 280 281 282 284 288 290 291 286 286 288 285 285
285 282 286 284 286 288 291 289 287 286 292 294 291 291 289 286 287 286 287 285 287 288 288 287 281 285 284 283 283 282 281 281 280 282 278 281 281 286 279 280 281 284 283 282 282
281 281 285 284 284 285 285 284 285 287 289 287 287 287 287 284 283 280 280 281 280 282 280 283 275 279 275 279 279 277 278 278 279 279 279 281 282 280 280 280 282 281 280 280 281
284 285 285 280 280 278 278 281 279 281 283 285 281 280 279 282 281 282 283 282 281 278 276 278 273 268 270 276 273 269 273 275 276 278 277 275 275 280 277 278 280 280 280 279 280

GFSSW_sfc_thetae_039.txt.gz
Theta_e
320 321 321 321 321 321 321 322 322 322 322 323 323 323 324 324 323 311 301 309 313 331 318 307 306 304 305 304 303 300 293 289 291 291 294 297 296 298 299 299 299 301 301 302 303
320 320 320 320 320 321 321 321 321 321 321 321 322 322 323 323 310 303 315 324 333 326 305 303 301 302 300 301 301 297 290 291 294 293 295 296 296 298 298 298 297 299 301 300 303
319 319 319 319 320 320 321 321 321 321 320 321 321 322 322 319 298 297 327 328 333 320 305 303 302 302 298 300 299 296 293 293 295 294 296 296 295 298 296 296 298 298 301 299 301
319 319 319 319 319 320 321 321 321 321 320 320 320 321 322 308 291 298 331 331 332 307 304 302 301 298 296 295 298 294 297 295 298 297 297 296 297 295 296 302 302 300 302 299 299
319 319 319 319 319 320 321 321 321 321 320 320 320 321 308 294 297 317 330 330 307 305 302 300 298 297 294 294 295 295 296 297 297 297 297 297 296 296 295 300 300 299 298 298 298
319 319 319 319 320 320 321 322 322 322 321 320 320 320 297 292 304 319 315 309 305 302 300 300 298 298 295 294 294 294 295 295 295 296 296 296 297 295 297 300 298 297 298 297 297
319 319 318 319 320 321 321 322 322 322 321 321 319 314 296 296 307 311 308 304 304 302 299 299 299 298 296 293 296 294 292 292 292 293 294 294 293 291 299 296 296 296 296 296 297
319 318 318 319 320 321 321 322 321 321 319 320 320 307 293 303 305 305 302 300 302 302 301 300 300 298 296 296 293 289 288 286 291 292 292 294 288 296 296 293 295 295 295 295 297
319 318 319 319 320 320 321 321 319 322 320 320 306 296 293 308 301 303 301 299 300 300 301 302 300 295 294 289 286 285 283 283 286 292 292 292 288 294 294 293 294 296 298 298 299
319 318 319 320 320 321 320 316 317 315 317 316 309 293 296 296 301 301 300 301 298 298 297 296 292 289 287 286 282 283 282 283 283 289 288 288 288 292 296 293 294 296 297 298 299
319 319 320 320 320 322 309 300 299 298 298 294 295 293 296 299 301 298 300 300 297 294 289 291 287 285 289 288 287 284 283 282 286 290 287 288 288 291 294 294 294 295 296 296 297
320 320 320 320 321 319 303 298 296 297 292 299 297 298 300 300 295 297 300 295 293 289 289 287 284 290 289 288 287 286 284 284 287 290 287 287 287 291 293 294 295 295 296 296 296
320 320 320 320 320 310 301 299 303 301 291 296 297 294 296 299 294 295 298 293 290 287 287 286 289 291 289 286 285 284 283 285 284 286 286 285 285 286 291 292 294 296 296 296 296
320 320 320 320 312 305 300 301 303 298 288 292 291 293 295 294 289 296 296 294 289 288 287 286 289 289 285 286 286 283 287 287 285 283 280 285 280 284 290 292 293 293 293 294 294
319 319 320 320 311 309 305 303 303 296 281 292 289 297 295 291 290 292 295 292 287 287 287 286 285 285 285 287 287 285 287 285 284 282 281 281 279 284 286 288 290 292 294 294 294
315 318 317 314 312 307 306 304 303 292 284 291 289 289 288 289 289 291 291 293 290 287 286 286 288 288 288 287 288 287 285 284 281 280 276 282 282 282 285 288 289 291 293 294 293
312 314 315 315 310 310 308 309 292 286 297 289 286 289 287 285 288 288 287 286 286 283 282 285 286 287 289 285 286 286 283 278 277 275 280 281 280 285 290 288 292 291 292 292 293
310 311 313 315 310 311 310 300 286 291 291 295 291 288 290 291 290 288 287 288 288 286 282 281 284 287 289 289 288 284 285 281 276 276 282 281 282 285 290 291 291 290 290 292 293
309 309 309 313 312 312 304 290 290 293 297 295 294 289 287 290 293 289 287 292 291 289 287 284 281 285 287 287 288 283 282 287 282 278 274 283 286 291 290 289 291 291 290 291 293
303 303 303 313 313 309 297 291 294 299 297 297 291 293 284 288 287 286 287 287 287 288 291 289 283 287 287 286 285 287 287 282 280 274 275 281 282 284 288 289 290 290 291 291 290
300 294 300 313 312 301 287 288 294 299 299 296 293 292 291 291 291 288 291 292 290 288 290 291 289 286 287 285 286 283 282 283 283 282 278 277 281 290 288 289 287 287 287 287 287
296 286 303 312 295 294 290 292 295 294 297 296 296 294 292 292 291 291 291 293 293 293 289 291 289 283 284 289 288 288 287 287 282 280 282 281 281 294 291 289 287 287 286 285 285
290 290 302 306 286 288 291 291 293 292 292 292 292 293 293 290 286 289 290 294 294 293 291 292 286 281 281 283 284 284 286 287 285 284 281 278 281 290 289 289 284 283 283 283 283
288 280 288 298 292 287 286 286 287 291 292 294 292 292 290 288 290 287 289 292 291 291 295 294 287 284 280 282 285 283 285 284 282 277 278 278 280 285 286 283 281 283 282 282 282
283 280 285 279 282 288 290 286 284 284 289 290 289 288 287 285 285 286 285 284 286 286 287 287 282 283 285 282 281 280 279 279 278 279 275 278 278 281 278 278 281 282 282 281 280
282 282 285 283 284 283 284 283 283 284 284 283 284 282 284 284 284 280 276 279 278 280 280 283 276 277 275 279 278 276 277 277 277 277 277 277 277 279 279 280 279 279 280 280 280
283 285 282 279 280 278 278 280 279 281 282 283 280 278 278 280 281 282 283 282 282 279 276 276 275 271 271 276 272 265 272 276 277 274 275 272 274 279 277 277 278 278 279 280 279

GFSSW_sfc_thetae_042.txt.gz
Theta_e
321 321 321 321 322 322 322 322 322 322 322 322 323 323 323 324 323 317 306 313 316 330 321 313 313 311 312 310 309 308 302 298 299 298 301 305 303 305 306 306 306 308 309 310 311
320 320 320 321 321 321 322 322 322 321 321 321 322 322 323 323 315 309 321 325 331 326 312 310 308 309 308 308 309 306 301 300 303 303 302 303 303 305 304 305 306 307 310 309 310
320 320 320 320 320 321 322 322 322 322 321 321 321 321 322 322 307 305 325 329 334 321 313 311 310 309 305 307 307 305 300 304 302 303 303 302 303 305 304 302 306 306 309 311 309
319 319 319 320 320 321 322 322 323 322 322 321 321 321 322 315 298 306 331 331 330 314 311 309 308 305 303 302 306 301 304 304 304 303 303 302 304 303 304 305 309 310 310 310 308
319 319 319 319 320 321 322 323 323 323 322 321 321 320 315 303 305 323 330 332 315 311 309 307 305 305 301 302 302 301 303 304 305 304 304 304 303 303 304 307 309 309 307 307 308
319 319 319 319 320 321 322 323 323 323 322 322 321 320 306 297 312 324 324 313 312 310 308 308 306 306 302 301 301 301 301 302 302 302 303 300 302 300 304 307 306 306 306 307 307
320 319 319 319 321 322 322 323 322 321 322 321 321 317 303 304 314 319 315 313 310 310 306 307 307 305 304 300 302 301 298 300 301 300 300 301 298 298 304 305 303 304 306 306 306
319 319 319 320 321 322 322 323 321 321 321 321 320 314 301 307 314 311 309 307 309 308 307 307 307 305 302 302 300 297 296 293 299 298 299 300 294 302 304 301 302 304 305 305 306
319 318 319 320 320 321 322 321 319 322 321 321 313 304 300 311 305 308 308 305 307 306 307 306 307 302 301 297 295 295 291 293 294 298 297 298 295 301 302 302 301 303 304 305 306
319 319 319 320 321 321 321 316 317 318 319 318 311 301 303 300 305 305 306 307 304 305 303 303 302 298 296 295 289 293 291 293 291 297 296 294 294 298 301 300 300 301 303 304 304
319 320 320 320 321 322 314 309 310 308 306 305 304 300 301 305 306 303 305 304 304 301 297 299 295 293 297 297 297 294 293 292 295 298 295 294 295 297 300 300 300 301 302 303 304
320 320 321 321 322 320 310 305 302 303 302 305 304 302 303 306 301 301 305 300 299 296 296 294 292 298 297 294 293 293 292 291 295 297 292 294 293 296 299 299 301 301 302 303 304
321 320 320 321 321 317 308 305 309 307 300 302 301 299 301 303 301 300 302 300 297 294 294 294 298 296 294 294 292 293 290 292 291 294 295 292 293 294 300 299 301 302 302 302 302
321 320 321 321 317 314 309 308 309 307 298 298 296 298 300 300 295 300 301 299 296 293 294 293 296 292 292 291 293 289 295 292 291 289 288 292 286 295 298 298 300 301 302 300 301
319 319 320 321 317 313 310 308 307 302 287 297 294 303 301 296 297 297 300 299 294 293 293 293 291 290 291 292 293 292 292 291 290 289 288 290 286 294 293 295 297 299 299 300 300
315 317 318 315 314 312 308 305 305 295 286 295 295 295 295 296 295 297 297 300 297 293 293 293 294 294 294 293 293 293 291 291 289 289 284 291 289 291 294 294 296 298 298 299 300
311 313 316 316 312 309 310 312 295 288 300 295 292 293 292 292 293 293 294 293 295 291 292 295 296 294 293 291 292 291 289 285 285 285 285 288 287 291 297 297 297 297 298 298 297
309 310 313 316 312 311 312 301 287 294 295 300 294 293 295 294 295 293 292 294 293 294 291 288 287 291 294 293 294 292 291 285 280 282 286 292 286 293 298 299 297 297 294 295 294
310 311 310 315 312 313 304 292 291 295 299 297 297 294 295 295 295 294 294 295 298 293 290 289 289 293 291 294 294 290 286 291 285 286 283 288 292 297 296 295 294 294 294 293 293
306 304 305 313 313 310 298 290 294 301 300 299 292 295 290 293 293 292 294 294 293 294 295 293 287 296 294 292 291 290 292 285 285 278 278 284 286 287 292 291 292 292 291 291 291
304 296 302 313 313 302 290 292 295 301 302 297 295 293 293 292 293 292 292 295 297 291 294 294 290 290 292 289 291 288 286 287 287 285 280 279 284 294 290 289 289 290 289 288 288
300 291 306 312 296 296 291 293 295 295 298 298 297 296 293 293 291 290 290 294 298 297 292 295 290 285 288 295 294 293 290 290 283 282 284 283 284 297 293 289 288 287 286 286 286
295 293 304 307 288 290 293 293 295 293 294 293 292 296 296 291 287 291 291 294 295 295 292 294 288 283 285 289 289 288 290 290 289 285 282 280 283 295 294 292 286 285 284 285 285
292 286 293 299 298 291 289 289 289 294 294 295 293 295 292 289 292 288 290 293 293 291 292 293 286 285 281 284 288 285 287 288 285 281 282 282 284 288 289 289 284 284 284 284 284
290 286 290 287 289 291 290 289 286 286 292 292 289 290 288 284 285 286 288 287 288 287 287 288 282 284 285 285 282 282 281 281 280 281 277 279 280 284 287 282 281 282 281 282 283
286 286 288 285 286 287 288 287 285 287 287 286 285 287 285 284 285 282 283 284 284 283 282 283 280 280 277 281 281 279 280 281 280 280 279 280 279 283 282 282 281 281 280 280 282
288 290 287 283 283 283 283 285 282 285 283 285 283 282 280 283 286 286 286 284 284 282 280 279 278 276 273 279 276 272 277 279 280 281 280 275 279 281 278 278 279 280 280 280 282

GFSSW_sfc_thetae_045.txt.gz
Theta_e
321 321 321 321 322 322 323 323 322 322 322 322 323 323 323 324 323 320 310 316 318 330 323 315 314 314 314 313 313 312 303 300 301 301 302 307 304 308 310 307 309 311 310 313 315
320 320 321 321 321 322 323 323 323 323 322 322 322 322 323 323 317 312 321 326 333 327 315 312 310 311 310 310 311 307 302 302 305 305 303 305 305 305 305 305 306 308 312 314 313
319 320 320 320 321 322 322 323 323 323 323 322 322 322 322 322 311 309 327 329 333 324 315 314 312 310 307 309 308 307 301 305 305 306 306 304 304 306 304 303 306 306 309 311 313
319 319 319 320 320 321 322 323 323 323 323 322 322 321 322 319 300 310 331 332 331 317 313 311 309 306 304 303 307 302 305 305 306 306 305 303 306 304 305 305 309 310 310 311 310
319 319 319 320 320 321 323 323 324 324 323 322 322 321 318 306 306 323 329 331 318 313 310 309 306 306 302 303 304 303 304 305 306 306 305 306 303 303 304 308 310 310 310 309 310
320 319 319 320 321 322 323 323 324 324 322 322 322 320 311 301 313 323 325 320 314 312 310 310 307 308 304 303 302 304 303 303 304 304 304 302 303 304 305 308 308 308 307 308 309
320 319 319 320 321 322 323 323 323 322 322 322 322 318 306 307 316 320 319 315 314 312 309 311 310 306 306 302 306 303 298 301 303 304 302 303 299 300 306 307 306 306 307 308 309
320 319 319 320 321 322 322 323 321 322 321 321 321 315 303 309 315 314 313 311 313 312 310 310 310 307 304 306 302 298 299 294 302 301 301 301 295 302 305 304 304 306 307 309 309
319 319 319 320 321 321 322 322 319 321 321 320 316 309 303 311 307 310 311 307 309 309 309 308 309 304 304 298 296 298 293 295 298 304 300 299 296 302 305 303 303 305 306 306 307
319 319 319 320 321 321 322 316 319 319 320 319 312 303 305 303 307 307 309 309 306 307 305 304 303 299 299 296 290 294 295 297 296 301 300 298 298 302 304 303 303 304 306 306 307
319 320 320 321 321 323 319 314 312 309 309 307 309 304 310 308 308 305 307 305 306 303 298 301 296 294 297 300 299 298 295 294 298 301 299 297 297 299 302 303 303 304 305 306 306
320 320 321 321 322 322 317 313 309 308 307 314 311 308 308 307 304 303 306 301 300 297 300 296 293 299 301 300 296 295 294 294 298 301 298 297 295 298 301 302 304 303 304 304 304
320 320 320 321 321 322 314 311 312 309 305 308 306 305 304 305 305 306 304 302 299 298 297 295 300 302 297 296 295 296 295 295 294 296 297 295 294 298 302 305 305 304 303 303 303
320 320 321 321 318 321 314 311 312 311 300 301 299 301 301 303 298 303 304 302 298 296 298 297 299 295 295 294 295 291 296 294 292 291 288 296 286 295 300 301 300 300 301 301 302
320 319 320 321 319 316 312 312 311 306 288 298 297 306 302 298 299 298 303 301 297 296 296 294 294 293 292 294 295 293 295 293 292 291 291 292 289 295 300 296 296 299 300 300 299
316 318 319 317 315 315 310 307 306 296 287 296 297 297 296 297 296 298 299 301 300 296 296 297 297 296 296 297 296 295 293 294 295 292 286 293 292 293 295 296 297 298 297 297 297
313 314 316 318 314 311 311 311 294 289 301 297 294 295 296 295 295 296 295 294 294 291 292 296 294 298 297 293 295 293 291 287 286 287 286 293 290 293 298 300 297 296 295 296 296
311 312 314 317 314 313 312 301 287 295 297 301 298 295 295 296 297 296 296 295 299 296 294 290 288 295 296 295 295 293 294 286 280 282 286 292 286 293 301 296 297 297 296 296 295
310 311 310 315 314 315 306 291 291 294 299 298 299 296 296 298 296 297 298 297 299 298 291 289 289 296 296 298 296 293 288 294 287 288 284 288 292 298 299 295 296 296 295 293 293
309 308 307 314 314 311 299 292 296 301 301 300 294 297 293 295 295 295 295 297 295 296 298 294 287 296 296 295 296 291 293 286 287 279 279 285 288 289 292 293 294 293 292 291 291
306 298 305 313 313 302 289 293 296 301 302 298 296 295 295 293 295 293 292 296 298 297 296 294 291 290 294 291 291 288 286 287 288 287 281 280 285 294 292 292 291 290 290 290 289
302 292 308 313 297 297 292 295 296 296 300 299 298 296 293 292 291 291 291 293 299 297 293 296 290 286 288 295 296 294 291 291 284 283 285 284 284 298 296 290 289 289 288 288 288
297 297 306 307 290 292 294 294 296 294 295 295 294 296 296 292 288 291 292 296 297 296 293 294 288 282 284 288 291 289 290 290 290 288 283 281 283 297 292 289 289 287 287 287 287
295 289 296 298 299 293 291 291 290 296 295 295 293 294 292 290 292 288 289 293 294 293 291 294 287 285 280 283 288 283 286 287 286 282 282 283 284 289 291 290 288 286 285 285 285
294 289 293 288 290 292 293 290 288 288 293 294 290 290 289 286 287 287 290 290 290 288 289 290 282 285 286 286 284 283 283 283 281 283 279 282 282 286 288 287 285 284 284 282 282
289 288 291 291 293 291 290 288 287 289 289 288 288 291 288 285 287 284 286 286 285 287 285 286 281 282 277 282 282 280 282 282 282 282 282 282 281 288 286 286 284 283 282 282 282
292 293 291 287 287 288 288 288 287 290 286 288 288 286 284 286 288 288 288 287 286 284 283 282 280 278 274 279 278 273 277 279 280 282 282 278 281 283 281 280 281 281 281 281 283

GFSSW_sfc_thetae_051.txt.gz
Theta_e
321 321 322 322 323 323 324 324 325 324 324 324 324 324 323 323 322 320 310 316 318 332 324 310 308 306 307 305 306 302 292 289 291 293 294 298 297 299 301 297 298 302 300 303 307
320 320 321 321 322 323 323 324 325 325 325 324 324 324 323 323 316 309 321 330 332 331 310 306 303 304 300 302 303 297 291 293 296 294 294 297 295 295 295 296 296 298 300 306 307
320 320 320 321 322 322 323 324 325 325 325 325 324 323 323 320 307 308 326 330 331 327 312 308 307 304 298 299 300 299 293 297 300 300 299 298 298 298 295 294 297 296 299 301 305
320 320 320 321 321 322 323 324 325 325 325 324 324 323 323 315 292 312 329 329 329 315 310 306 303 299 296 295 300 294 300 300 301 300 300 298 298 298 297 299 301 300 301 300 300
320 320 320 320 321 322 323 324 325 325 324 323 323 323 314 303 302 321 327 329 318 312 305 303 299 298 294 295 296 294 295 299 300 299 298 299 297 297 298 302 302 302 301 300 300
320 319 319 320 321 322 323 324 325 325 323 322 323 321 307 296 314 322 321 318 311 307 304 303 301 301 297 296 293 295 296 296 298 298 297 297 295 296 298 299 299 300 299 298 299
320 320 319 320 321 322 323 324 324 324 322 322 323 316 306 301 314 318 318 312 310 307 304 305 304 300 298 295 298 296 293 295 296 296 296 297 294 295 299 298 299 299 298 299 300
320 319 319 319 320 322 323 324 324 321 322 322 322 312 299 308 308 312 311 308 309 309 307 306 305 301 298 298 296 292 289 286 294 295 296 294 288 296 298 296 298 299 294 298 298
319 319 319 319 320 321 322 323 322 321 321 321 313 307 299 311 305 306 306 305 306 305 305 306 304 298 297 291 288 287 283 286 291 295 294 291 288 295 298 296 296 295 296 297 298
319 319 319 320 320 321 322 323 319 318 318 319 315 298 301 300 304 305 304 306 303 302 300 299 296 292 290 288 282 284 284 287 287 293 293 291 290 294 296 296 295 295 294 296 296
319 319 319 320 321 323 320 314 307 304 306 304 302 300 302 304 306 304 305 303 302 298 292 295 289 287 289 290 290 289 288 286 290 295 291 291 290 293 296 295 294 293 293 294 294
319 319 320 320 322 323 318 307 305 305 301 309 309 306 306 305 300 301 303 297 296 291 293 290 287 293 294 295 292 290 287 286 291 294 291 290 289 293 295 293 293 293 292 293 293
319 319 319 320 321 317 314 307 309 306 297 304 307 307 305 306 302 301 301 298 294 292 292 288 292 296 295 292 291 290 288 288 288 289 290 287 286 290 292 293 293 293 293 292 291
319 319 319 321 315 315 308 308 309 306 292 297 299 300 300 302 298 302 301 299 295 292 293 292 296 294 292 291 292 287 292 291 289 284 282 287 279 287 289 289 290 290 289 289 290
319 319 320 321 315 312 309 309 308 303 282 296 296 302 299 297 296 296 300 297 293 293 292 291 290 289 290 291 292 289 291 289 287 284 283 284 280 285 289 287 288 288 289 289 289
319 318 319 318 317 311 308 309 307 294 284 292 294 294 292 293 294 295 295 297 296 292 291 291 293 292 291 293 292 292 289 288 286 284 278 284 283 283 285 288 288 289 289 290 289
318 318 317 319 312 309 311 311 293 288 298 290 290 293 291 290 291 292 290 288 287 285 285 289 290 291 293 289 290 289 285 280 278 277 278 286 282 287 289 291 289 288 288 288 289
317 316 315 317 311 313 313 301 286 294 296 296 293 292 289 291 291 291 290 288 291 289 287 286 284 290 292 291 289 286 286 279 272 275 277 283 279 285 289 290 290 290 289 288 287
315 311 312 313 313 314 304 289 289 295 299 298 294 289 288 293 294 290 289 290 293 292 288 287 285 291 292 292 292 287 284 288 282 272 274 280 284 289 289 288 288 287 286 285 286
309 307 306 313 314 311 299 291 293 300 301 299 292 294 289 292 292 290 290 292 292 292 293 290 284 290 289 291 289 288 288 281 280 269 267 277 279 281 285 286 286 285 285 286 286
305 300 307 313 313 303 292 292 296 301 302 297 295 293 294 293 294 292 292 292 291 290 293 291 287 285 289 287 287 285 283 284 285 283 274 271 277 287 288 287 285 286 286 285 285
300 294 306 312 297 297 292 295 297 296 300 299 299 297 294 293 290 290 290 292 295 293 289 291 288 281 284 290 290 289 287 287 280 277 279 281 280 291 288 287 286 286 286 285 284
296 296 306 306 290 292 294 294 296 294 294 295 295 297 297 293 288 291 291 294 295 293 290 291 281 273 276 283 286 285 286 287 286 284 277 274 278 287 286 286 288 287 285 284 283
294 288 295 298 297 291 292 292 291 296 295 296 294 296 293 290 292 288 289 292 291 291 294 294 282 276 273 279 283 280 283 284 283 277 275 277 278 284 285 283 285 282 281 279 279
293 288 292 287 290 292 291 291 289 288 293 294 290 290 290 286 287 286 288 287 287 291 288 289 278 282 281 281 281 279 280 280 278 279 273 277 278 281 282 282 280 280 279 279 278
288 286 288 286 289 290 290 286 287 289 290 288 287 289 289 283 284 280 281 283 283 283 283 284 273 277 270 280 280 278 279 279 279 279 278 279 278 283 279 279 276 277 278 277 278
291 290 286 285 284 286 287 288 286 288 286 289 288 284 283 283 285 284 284 284 284 281 280 279 274 267 264 275 272 267 272 276 277 278 277 274 278 277 277 278 276 276 277 277 278

GFSSW_sfc_thetae_054.txt.gz
Theta_e
321 321 322 322 323 323 324 325 325 325 325 325 325 324 324 323 322 318 305 314 316 330 324 308 306 304 305 303 304 300 290 287 289 290 292 295 294 297 298 296 296 299 298 300 305
320 320 321 321 322 323 324 325 325 325 325 325 325 324 324 323 313 308 320 328 333 331 308 304 301 303 298 300 301 295 288 290 294 293 293 295 294 295 294 295 294 296 299 303 306
320 320 320 321 321 322 323 324 325 325 325 325 324 324 323 320 303 305 327 328 331 327 309 306 305 302 297 297 298 296 291 295 297 298 298 296 295 296 293 294 296 295 297 298 303
320 320 320 320 321 322 323 324 325 325 325 324 323 323 323 312 291 309 328 329 330 315 308 304 301 297 295 293 297 293 298 298 300 299 297 295 297 295 296 298 300 299 298 298 299
320 320 320 320 320 321 323 324 325 325 325 323 323 323 312 300 301 318 326 327 314 309 303 301 298 297 293 294 294 293 294 297 298 297 296 297 295 294 296 299 300 299 299 297 297
320 320 319 320 320 321 323 324 325 325 324 323 323 321 304 295 313 320 318 315 309 305 302 302 299 299 295 294 293 293 294 295 297 297 295 295 293 295 297 296 298 298 297 296 296
321 320 319 320 320 322 323 324 324 324 322 322 322 316 305 301 313 318 316 310 308 305 302 303 302 299 297 294 297 295 292 293 294 294 294 295 291 293 298 297 297 296 295 297 298
320 320 319 319 320 321 322 324 324 324 322 322 322 311 298 307 308 312 311 306 307 307 305 304 303 300 297 297 295 290 288 286 292 293 294 293 288 295 297 293 296 294 292 296 296
320 319 319 319 320 321 322 323 323 322 321 321 311 305 298 311 304 306 305 303 304 303 303 305 302 297 296 290 287 287 282 285 289 294 293 290 288 294 296 294 294 291 293 294 294
319 319 319 319 320 321 322 323 320 318 317 318 315 298 301 299 303 304 303 305 301 301 299 298 294 291 289 286 282 284 283 285 286 292 291 290 289 292 296 294 292 291 291 292 291
319 319 319 319 320 322 320 313 306 304 306 303 301 299 300 302 304 302 304 302 301 298 291 293 288 286 288 290 288 287 286 285 289 293 289 290 289 293 294 293 289 290 291 290 290
319 319 319 319 321 322 317 307 305 305 300 308 306 302 304 304 299 301 303 296 295 291 292 289 286 292 292 291 289 288 286 286 289 292 290 289 288 289 290 290 291 290 290 289 289
319 319 319 319 321 317 313 308 308 305 298 302 306 306 303 304 301 301 300 297 293 291 291 288 291 294 292 291 290 288 287 286 288 289 288 286 286 287 289 290 291 290 290 289 288
319 318 318 320 315 313 310 308 308 305 292 295 299 301 300 303 298 300 300 297 293 291 291 289 294 292 291 291 291 287 291 291 288 283 280 286 279 285 287 287 287 287 286 287 287
319 318 319 321 314 311 310 308 306 303 284 296 296 301 298 298 295 294 298 295 292 292 292 290 290 289 290 291 292 289 290 288 286 283 282 282 279 283 286 284 285 286 286 286 287
319 318 318 318 318 314 308 308 306 294 285 291 293 292 291 292 293 294 294 296 295 290 289 291 291 290 291 291 291 291 288 287 284 282 277 283 282 282 283 286 285 286 286 287 287
318 318 317 320 313 310 312 310 294 287 297 290 288 291 289 288 290 290 289 287 286 283 283 287 289 290 292 288 289 288 285 279 277 276 277 284 281 283 286 288 287 286 286 286 286
318 317 317 319 311 312 314 301 285 293 295 294 291 290 287 289 288 289 287 285 289 287 285 284 283 289 291 290 288 286 286 279 271 275 277 282 280 283 287 288 288 288 287 287 286
317 314 313 312 312 315 306 291 290 294 299 294 291 286 286 289 289 288 287 287 290 290 286 284 285 289 290 291 291 286 283 287 281 269 273 280 281 286 287 285 285 285 285 284 285
311 309 307 313 314 311 298 292 293 299 301 299 290 290 285 289 291 288 287 290 291 292 292 290 283 288 288 290 288 287 289 281 279 269 266 276 278 280 282 283 284 283 283 284 284
308 302 308 314 312 304 292 293 295 300 302 298 295 293 293 292 292 290 290 292 290 289 291 289 287 284 287 285 285 284 283 284 283 278 271 269 277 285 286 285 284 284 284 284 283
302 295 306 313 298 298 293 295 298 297 302 300 299 296 293 294 291 292 291 292 294 291 288 291 286 279 283 287 289 287 285 285 278 276 277 278 279 289 288 287 286 285 286 284 283
297 296 306 305 292 292 295 295 297 295 297 297 297 298 298 294 290 293 292 294 295 294 291 291 284 272 276 283 285 283 285 286 284 283 276 274 276 287 286 285 286 285 285 284 282
295 289 295 299 297 294 292 292 292 297 296 297 296 296 293 291 294 290 290 292 291 293 295 294 284 281 279 279 283 281 283 284 282 275 277 279 280 281 284 284 285 285 283 282 281
293 288 292 286 291 293 293 293 291 289 294 295 292 293 292 288 289 289 290 287 287 291 289 289 281 281 280 281 281 279 279 281 279 279 274 277 278 282 280 280 279 279 278 277 278
287 287 290 288 291 292 290 288 288 291 291 289 289 290 290 288 287 283 284 284 284 284 283 284 273 276 270 280 280 278 279 280 281 281 279 280 278 284 277 276 275 276 277 277 277
292 291 288 287 286 287 287 288 287 289 287 289 290 285 285 286 286 285 284 284 285 282 281 278 273 267 264 273 271 267 271 277 277 278 277 274 278 277 277 276 275 276 277 277 278

GFSSW_sfc_thetae_057.txt.gz
Theta_e
320 321 322 322 322 323 324 325 325 325 325 325 325 324 324 324 321 315 301 311 315 329 323 306 304 303 303 302 302 297 289 285 288 289 290 294 294 296 296 294 295 297 299 298 303
320 320 321 321 322 323 324 325 325 325 325 325 324 324 324 323 311 306 318 328 332 330 306 301 299 301 297 299 300 293 286 288 292 292 292 294 292 294 294 294 292 294 298 301 306
320 320 320 320 321 322 323 324 325 325 325 325 324 323 323 319 300 301 327 328 330 327 307 304 303 301 295 297 297 293 289 292 295 296 295 294 293 294 291 293 294 294 296 297 300
320 320 320 320 320 321 323 324 324 325 325 325 323 323 322 310 290 305 327 327 328 314 306 302 299 296 293 291 295 293 297 295 298 297 295 294 294 294 295 297 298 296 297 296 296
320 320 320 320 320 321 322 324 324 325 325 323 323 323 310 298 300 315 326 325 311 307 302 300 296 296 292 292 293 291 293 295 297 297 295 295 294 293 295 298 297 297 296 295 296
320 319 319 320 320 321 322 323 324 325 325 322 323 322 302 295 312 318 315 310 307 304 301 300 298 298 294 293 292 292 293 294 295 296 294 294 291 294 295 295 296 295 295 295 295
320 320 320 320 320 321 322 323 324 324 324 322 322 314 303 300 312 317 312 308 307 304 301 301 300 297 295 292 295 293 291 292 293 293 293 293 290 292 296 295 293 293 294 294 294
320 320 319 319 320 321 322 323 324 324 323 322 321 309 298 306 309 312 311 305 306 305 304 302 301 299 295 295 293 288 287 285 290 292 292 291 288 294 295 294 291 292 291 292 292
320 319 319 319 319 320 321 322 323 323 320 321 309 303 298 310 304 306 306 303 303 302 301 305 300 295 295 289 286 286 283 284 288 292 291 289 287 294 296 294 290 290 290 291 290
320 319 319 319 319 320 322 323 321 317 317 317 314 299 302 299 302 303 302 304 300 299 298 297 293 290 288 286 282 284 283 284 285 290 290 288 289 292 294 292 289 288 288 288 288
320 319 319 319 319 321 320 312 305 302 305 302 300 300 299 302 304 301 303 301 300 296 289 292 287 285 289 289 287 285 284 283 287 292 288 289 288 291 291 289 289 289 288 288 288
320 319 319 319 320 322 317 308 306 304 300 307 305 302 302 302 297 299 302 296 296 291 291 288 285 291 291 290 289 286 284 284 288 291 289 288 288 288 289 288 288 288 287 287 287
320 319 319 319 320 318 312 311 307 304 298 302 305 305 304 302 299 300 300 297 293 290 290 287 290 293 291 289 287 286 285 285 287 288 286 285 285 286 288 289 288 288 288 287 287
320 319 318 319 316 312 310 314 308 305 292 295 299 301 300 303 298 301 300 297 292 290 290 288 292 291 288 288 289 285 290 290 288 283 280 285 278 284 285 285 286 285 285 285 286
320 319 319 320 313 310 311 308 306 302 284 296 296 300 299 299 295 294 297 296 291 291 291 289 290 288 288 289 291 288 289 287 285 282 280 281 279 282 285 283 283 284 285 285 285
319 319 318 317 317 315 309 308 306 294 285 291 293 291 292 292 292 293 294 296 295 291 289 291 290 290 291 290 291 290 287 286 283 281 277 282 281 281 282 284 284 284 285 285 285
318 318 317 319 312 313 312 310 292 287 295 289 288 290 289 288 289 290 289 288 287 284 283 286 288 289 290 287 288 286 284 278 276 276 277 281 280 283 285 285 286 284 284 285 285
318 317 316 318 315 312 312 300 284 292 294 292 290 288 286 288 287 288 286 286 288 285 283 283 282 288 290 289 286 284 285 278 270 273 277 281 279 283 285 287 287 287 286 286 284
318 316 315 317 314 315 305 292 290 292 297 291 290 287 284 288 287 286 285 285 288 288 285 283 284 288 289 290 290 284 282 286 279 268 272 279 281 284 285 284 285 285 285 284 283
313 310 309 316 314 312 301 294 295 299 299 293 288 288 283 286 286 285 285 289 289 290 291 288 283 287 287 289 287 287 288 281 279 269 267 276 278 280 281 282 283 283 282 283 284
309 303 309 314 313 304 294 295 297 299 301 297 292 293 290 289 289 285 287 290 290 289 292 290 287 284 286 285 284 283 282 282 282 279 271 269 275 283 284 284 283 283 283 283 283
304 299 308 313 298 299 295 296 298 297 302 300 299 296 294 293 290 291 290 291 293 292 289 290 287 279 283 285 287 286 284 284 278 275 276 277 278 286 287 286 285 284 285 283 283
299 297 306 306 294 295 296 296 297 297 298 298 296 298 297 293 288 291 292 294 296 293 291 291 285 281 281 282 285 284 285 284 283 281 275 275 278 286 286 285 286 285 284 284 282
296 290 295 298 298 297 294 293 293 297 298 299 297 298 295 293 294 291 292 292 292 294 296 296 286 284 282 281 284 282 284 285 284 277 279 280 279 282 284 284 284 284 284 282 281
293 290 292 287 289 293 295 294 292 291 295 298 293 294 293 289 290 289 291 288 288 291 291 292 283 284 283 283 283 280 280 283 280 282 278 281 280 282 284 283 280 281 281 279 278
288 287 290 287 288 291 292 288 290 292 292 290 291 293 293 289 290 286 287 287 287 284 286 285 281 280 277 279 278 278 281 281 281 281 279 279 279 282 278 276 275 277 277 276 277
292 291 290 287 286 286 286 287 287 292 289 290 292 288 289 291 288 285 287 287 286 284 282 282 279 277 275 272 273 271 274 280 280 279 281 276 280 277 274 277 276 275 276 276 277

GFSSW_sfc_thetae_060.txt.gz
Theta_e
320 320 321 321 322 323 324 325 325 325 324 324 325 324 324 324 321 313 299 309 315 328 321 305 303 302 302 301 300 295 287 283 286 288 289 293 293 294 294 297 294 295 300 296 304
319 320 320 321 321 322 323 324 325 325 325 325 324 323 323 323 309 303 317 328 331 328 304 300 298 299 296 297 298 291 285 286 289 290 294 293 292 293 293 291 292 293 296 298 305
320 319 320 320 321 321 323 324 324 325 325 325 323 323 323 318 299 298 326 327 331 323 305 303 302 299 294 297 297 291 288 289 293 294 294 293 292 293 294 292 292 292 295 296 295
320 319 319 320 320 321 322 323 324 325 325 325 323 323 322 307 289 304 326 328 329 309 304 301 298 294 291 292 294 292 294 294 296 296 294 292 293 293 293 295 295 293 294 294 295
320 320 320 320 320 320 322 323 324 325 325 325 323 323 307 297 300 313 325 322 309 305 301 299 295 294 290 291 292 292 292 294 296 295 294 294 293 292 294 294 294 296 296 294 293
320 319 319 319 320 320 321 322 324 324 324 324 323 322 300 296 310 316 313 307 305 303 300 299 297 297 293 292 291 290 292 293 294 295 293 293 290 292 292 292 294 295 293 292 292
320 320 320 320 320 321 321 322 323 324 324 323 322 314 301 302 312 315 310 305 305 303 299 300 299 296 294 291 293 292 290 291 292 291 292 293 288 290 293 292 292 292 291 291 291
320 320 319 320 320 320 321 322 323 323 324 321 321 308 299 305 310 311 309 304 305 304 303 301 300 298 294 294 292 288 286 285 290 290 291 292 287 292 292 291 290 290 289 289 290
320 319 319 319 319 319 320 322 322 322 321 321 308 301 298 309 303 307 305 302 302 301 301 304 299 294 293 288 285 285 283 283 288 291 290 288 287 292 292 291 289 288 287 288 288
320 319 319 319 319 319 321 322 321 316 315 316 313 299 302 299 301 302 300 303 299 298 297 296 292 288 288 286 282 283 282 283 284 289 289 287 289 292 290 289 287 285 285 286 286
320 320 320 319 319 320 320 312 305 302 304 302 300 300 299 301 302 300 302 300 299 295 290 290 287 285 288 288 287 286 284 283 286 290 287 289 288 289 289 288 287 286 286 286 286
320 320 320 319 320 321 318 307 306 303 299 306 305 302 302 301 296 298 301 296 294 289 290 287 284 290 290 289 287 285 283 283 287 290 289 287 287 287 287 286 286 285 285 285 286
320 319 319 319 319 318 313 310 307 304 297 302 305 303 303 301 297 297 299 296 293 289 289 287 290 292 290 287 286 284 283 283 285 287 286 284 284 284 286 286 286 286 286 286 286
320 319 319 319 315 313 310 316 308 305 291 294 298 301 300 301 296 301 299 297 291 290 290 288 291 291 288 288 288 283 289 288 287 284 281 284 278 282 283 283 284 284 284 284 285
320 319 319 320 313 310 310 308 306 303 283 295 296 300 299 299 295 294 297 296 290 290 291 289 289 288 288 289 290 287 289 288 285 282 279 279 278 281 283 281 282 283 283 284 284
319 319 318 317 317 312 309 310 309 292 283 291 292 291 293 292 292 293 293 295 294 291 289 290 290 291 290 290 291 289 287 285 282 280 276 281 280 280 281 283 282 283 283 284 284
319 318 317 318 311 310 313 309 292 284 294 289 288 289 290 287 288 290 289 288 287 284 283 285 287 288 290 286 286 286 284 278 275 275 276 280 279 282 284 285 285 284 283 283 283
318 317 316 318 315 312 311 300 283 290 292 291 289 287 287 288 287 287 286 285 288 285 283 283 281 288 290 288 285 284 284 278 271 273 276 281 278 283 284 285 287 286 285 284 283
318 317 316 317 314 315 304 290 290 290 296 290 289 284 283 286 286 285 284 285 288 287 284 282 283 287 287 289 289 284 282 285 278 267 272 278 281 283 284 283 284 284 284 283 282
315 312 312 318 315 312 300 293 293 297 297 291 289 288 283 284 284 284 283 287 288 289 290 288 283 286 286 288 286 286 288 281 279 270 268 276 278 280 280 281 282 283 283 283 283
311 304 310 317 314 304 294 294 297 298 301 293 292 290 286 284 285 283 284 288 290 288 290 288 286 283 286 284 284 283 282 282 283 279 271 269 275 282 283 284 283 284 284 283 282
307 298 309 315 300 299 295 298 299 298 300 299 299 296 291 291 287 285 285 289 292 290 288 289 286 278 282 284 286 284 284 283 279 275 275 276 278 284 285 286 285 285 284 283 282
300 301 306 306 295 295 297 297 298 296 298 298 297 298 297 293 289 291 291 293 294 293 290 292 287 281 282 282 285 283 284 284 283 280 275 273 276 285 285 284 286 284 283 283 282
298 292 296 298 298 297 296 294 294 299 298 300 298 298 295 293 294 290 291 291 293 294 296 295 287 284 278 281 282 281 283 283 283 279 278 280 280 283 284 283 284 284 283 283 282
294 292 292 288 293 293 296 295 293 292 296 299 295 296 294 290 290 289 292 288 289 294 294 292 285 286 285 284 284 281 279 282 282 284 281 284 282 283 285 285 285 284 284 281 280
290 289 290 288 289 292 292 290 292 294 293 293 294 295 295 290 289 286 289 288 287 286 288 288 284 284 280 280 281 281 283 282 284 283 281 280 279 284 281 279 279 280 281 279 278
292 292 291 289 286 288 288 289 288 292 289 289 289 290 291 292 292 291 292 292 291 286 285 284 280 280 277 275 275 276 279 281 282 281 282 278 283 279 277 279 278 278 277 278 277

GFSSW_sfc_thetae_063.txt.gz
Theta_e
320 320 321 321 322 323 324 325 325 325 324 325 325 324 324 324 321 312 299 309 314 327 320 305 304 303 304 303 302 298 289 286 289 290 293 297 296 298 299 298 298 300 301 302 308
319 319 320 320 321 322 323 324 325 325 325 325 324 323 323 323 309 302 317 328 331 327 304 301 299 301 298 300 300 293 288 289 291 292 294 296 296 296 297 296 297 298 300 299 297
319 319 319 319 320 321 322 324 324 325 325 325 324 324 324 318 298 297 325 327 331 320 305 303 303 301 296 298 298 294 290 291 294 295 296 296 295 297 296 295 297 298 297 297 297
320 319 319 319 320 321 322 323 324 325 325 325 324 324 322 306 289 303 327 327 329 308 305 302 300 296 293 292 296 292 295 295 297 297 296 295 296 296 296 297 296 295 296 296 295
320 320 319 320 320 320 321 323 324 324 324 325 324 323 306 299 301 313 325 324 309 305 302 300 296 296 292 293 294 294 294 295 296 296 295 295 295 294 295 293 296 296 294 293 293
320 319 319 320 320 320 321 322 323 324 324 325 324 322 300 297 310 316 311 306 305 303 300 300 298 298 294 293 293 293 293 294 295 295 294 294 293 294 293 295 295 294 292 292 291
320 320 320 320 320 320 321 322 323 323 324 324 322 312 300 303 313 313 309 304 305 303 300 301 300 297 296 293 294 293 291 292 292 293 293 294 291 291 293 294 292 291 291 290 290
320 319 319 320 320 320 320 321 323 323 323 322 321 305 300 305 312 312 307 304 304 304 303 302 301 298 296 295 292 289 289 287 292 292 292 293 289 290 293 293 290 289 288 289 289
320 319 319 320 319 319 320 321 322 321 321 321 307 300 299 310 304 308 305 303 302 301 301 303 300 295 295 290 287 287 285 285 289 292 291 291 290 290 292 291 288 287 287 288 288
320 320 320 320 319 319 320 322 321 316 314 316 311 299 302 300 301 303 301 303 299 298 298 296 292 289 288 287 283 284 283 285 286 290 290 289 289 289 290 289 286 286 286 287 287
320 320 320 320 319 320 318 312 305 301 303 301 300 299 299 300 302 300 302 300 298 295 290 291 288 287 290 289 288 287 285 285 288 290 289 289 289 290 289 287 286 286 286 286 286
320 320 320 320 320 320 318 307 305 302 298 305 305 303 303 300 295 298 302 296 294 289 290 288 285 291 290 289 288 286 284 284 287 289 289 288 288 287 286 286 286 285 286 286 287
320 320 320 319 319 317 313 310 307 304 297 301 304 302 303 300 297 296 299 296 292 289 288 286 289 291 290 287 286 285 284 284 286 288 288 286 285 284 285 285 286 286 286 286 286
320 319 319 319 314 313 310 314 311 305 290 293 298 302 300 300 295 300 299 296 292 289 289 288 291 290 288 287 288 283 287 287 287 286 282 285 280 283 284 283 284 284 284 285 285
320 320 320 319 313 310 310 311 308 304 283 294 295 299 300 299 295 294 297 296 290 290 291 288 288 288 288 289 289 288 289 287 286 284 281 282 280 282 283 281 282 283 284 284 285
319 319 319 316 316 313 309 312 310 292 282 291 292 291 294 292 292 293 294 296 294 290 289 290 291 290 291 290 290 289 287 285 283 281 277 282 282 281 281 283 283 284 284 284 284
319 318 317 318 310 309 313 310 292 284 293 288 288 289 291 287 288 290 290 288 288 284 284 286 287 288 290 286 287 286 284 279 277 276 277 281 279 283 285 285 285 284 284 284 284
318 317 316 318 313 312 311 299 283 289 290 289 288 288 289 288 287 288 286 286 288 286 283 283 282 287 289 288 285 284 285 279 272 273 277 281 278 284 286 286 286 287 286 285 284
317 316 315 317 313 314 304 291 289 289 294 288 287 284 284 286 287 285 285 285 289 287 286 282 283 286 287 288 289 284 282 285 277 267 274 279 282 285 284 283 284 284 284 283 283
314 312 312 318 315 310 299 294 293 297 294 291 288 287 282 284 285 284 284 287 288 289 290 287 282 285 285 288 286 285 287 281 279 271 269 277 278 281 281 282 282 283 283 283 283
311 303 311 317 314 304 292 294 297 299 299 293 291 290 286 284 286 284 285 286 289 287 290 288 285 283 285 284 284 283 282 282 283 280 273 271 277 283 284 284 282 284 284 284 283
307 297 310 315 300 300 295 296 299 298 300 299 298 295 289 288 286 286 286 288 291 289 287 289 286 278 282 284 285 284 284 284 282 276 276 276 280 285 286 285 285 284 285 285 284
300 300 306 308 294 295 297 298 299 297 298 297 297 298 298 292 287 288 287 293 292 291 288 290 286 277 281 282 282 283 284 284 283 283 281 276 280 285 284 284 285 285 285 284 283
299 293 296 299 301 296 296 295 294 300 298 299 298 299 296 294 294 291 291 292 294 294 296 295 288 286 284 284 283 281 282 283 285 282 281 281 279 283 283 283 284 284 285 284 283
297 293 293 287 293 296 296 296 294 293 298 299 296 297 295 292 293 292 294 289 290 294 295 292 286 287 286 284 282 279 280 282 282 285 283 285 283 284 286 286 286 286 284 283 283
291 290 290 289 290 292 294 292 293 295 294 293 294 295 296 292 291 286 289 288 288 289 290 291 285 286 283 283 285 284 283 282 283 283 282 282 282 286 285 284 284 284 284 283 282
293 292 292 290 287 289 289 289 289 293 290 289 290 294 292 293 290 287 292 292 291 287 287 285 282 283 280 277 278 277 280 283 284 283 284 281 286 282 281 283 284 282 283 283 282

GFSSW_sfc_thetae_069.txt.gz
Theta_e
320 320 321 321 322 323 324 325 325 325 326 326 327 325 325 325 324 318 310 315 319 328 320 314 313 313 314 311 312 310 301 298 298 299 301 306 304 307 308 306 307 307 307 306 309
319 319 320 320 321 322 323 324 324 325 325 326 326 325 325 324 318 311 318 327 331 329 313 310 308 309 308 308 310 306 301 300 302 303 302 305 305 305 305 305 305 305 308 308 309
319 319 319 320 320 321 322 323 324 324 325 325 326 326 324 322 312 308 324 328 330 320 313 312 311 308 305 307 306 305 300 301 301 303 305 304 304 306 304 302 305 304 306 306 307
319 319 319 319 320 320 321 323 324 324 325 325 326 325 323 318 300 312 326 327 330 316 313 311 309 305 303 302 305 301 303 303 304 304 304 303 305 303 304 305 305 305 305 305 305
320 319 319 319 320 320 321 322 323 324 324 325 326 324 319 311 309 319 326 326 316 313 311 309 306 305 302 302 303 302 303 304 305 305 304 304 303 303 303 303 304 303 304 303 304
320 320 319 320 320 320 321 321 322 323 324 324 325 322 314 306 318 321 317 314 313 311 310 309 307 307 304 302 302 303 303 303 304 303 304 301 303 301 302 304 302 302 301 302 302
320 320 320 320 320 321 321 321 322 323 323 324 323 317 312 311 320 320 314 312 312 311 308 310 309 305 305 302 304 303 299 304 304 304 302 302 299 299 302 303 301 301 301 300 300
320 320 320 320 320 320 320 320 321 322 323 322 321 315 308 312 321 316 315 311 312 312 310 311 310 307 305 305 302 300 301 297 302 301 301 301 298 301 301 301 301 301 301 300 300
320 319 320 320 320 320 320 320 321 322 320 320 317 312 306 314 310 316 316 310 310 310 309 309 309 304 303 299 298 300 295 298 300 301 300 299 299 300 301 300 301 301 300 300 300
320 319 320 320 320 320 319 321 322 319 318 318 316 307 310 305 308 314 314 312 308 307 305 305 304 300 300 298 292 296 296 297 297 300 298 298 298 299 300 300 301 301 300 299 299
320 320 320 320 320 320 320 319 312 310 312 308 309 308 307 306 310 309 311 308 308 305 300 302 298 295 298 300 301 300 298 297 300 300 297 298 299 302 300 299 300 299 299 299 298
320 320 320 320 321 320 320 312 312 312 304 311 311 310 310 307 301 305 309 304 302 298 302 297 294 301 303 301 299 298 296 296 299 300 296 297 297 301 301 299 300 300 299 298 297
320 320 320 320 320 318 317 315 318 314 306 308 310 308 309 306 304 303 305 304 300 298 298 297 300 301 298 296 295 296 294 295 295 298 297 296 295 298 302 299 297 298 299 298 297
321 320 320 320 314 319 315 320 315 316 301 304 303 308 307 307 302 309 306 303 299 297 299 297 302 297 296 295 296 292 299 296 295 293 290 297 288 298 301 293 294 294 295 296 296
320 319 320 319 315 313 317 321 318 313 288 303 301 307 305 303 301 299 304 301 297 297 297 295 294 294 294 296 297 294 297 295 295 293 293 294 290 295 296 292 292 294 294 295 295
319 319 319 317 315 315 315 315 313 293 285 297 300 299 299 301 297 298 298 302 301 298 298 296 298 298 297 297 297 297 295 293 293 293 286 292 292 293 295 294 295 293 294 294 294
318 318 317 319 311 313 316 310 293 285 301 296 296 298 300 297 296 297 294 294 293 290 291 295 295 298 298 294 295 295 292 286 284 283 284 290 291 294 298 295 297 293 293 294 293
317 317 316 319 314 315 313 301 284 294 298 297 296 297 296 297 297 296 295 293 297 296 294 292 290 296 297 296 295 292 293 288 282 283 287 286 285 291 292 298 297 296 295 294 292
316 316 313 318 315 315 305 291 289 295 301 297 295 292 295 296 298 295 295 296 298 297 292 293 293 296 296 298 299 293 289 295 286 282 283 288 291 293 292 291 294 294 294 292 291
313 310 309 319 316 310 299 293 295 301 301 298 294 297 294 295 293 294 295 299 298 300 301 298 290 292 293 294 296 294 297 286 288 281 281 288 289 290 288 289 291 292 292 292 292
310 302 311 318 314 303 292 294 297 303 300 295 296 296 296 295 294 294 296 297 299 299 299 299 294 288 291 290 291 290 289 290 291 289 285 284 288 297 296 293 291 292 293 293 292
305 295 315 315 298 299 294 298 299 300 303 298 299 298 296 296 293 294 295 298 299 298 293 298 294 290 290 294 294 295 292 292 287 285 287 287 288 293 296 297 295 294 293 294 293
301 301 311 311 292 292 298 299 298 298 299 297 296 299 300 295 288 293 296 301 298 296 295 296 289 286 287 290 290 289 291 293 292 290 286 285 288 293 293 294 296 294 294 294 293
300 292 300 300 302 296 294 294 296 300 299 300 299 300 297 295 294 293 292 297 296 297 298 297 290 289 288 291 293 287 290 291 290 285 287 288 291 291 292 293 294 295 295 294 293
297 294 299 290 293 295 297 295 294 293 299 300 297 297 296 292 293 291 294 294 294 295 295 295 285 288 292 294 291 291 291 290 287 289 286 290 291 296 295 295 295 295 295 293 292
292 293 297 295 297 294 294 293 293 295 295 294 294 296 297 293 292 288 291 292 292 291 291 293 285 288 286 291 291 287 289 291 290 290 290 291 291 298 295 296 294 293 293 292 292
296 295 292 291 293 292 292 293 293 296 296 297 296 296 293 294 294 293 292 293 294 291 289 287 285 284 283 289 285 282 287 289 291 293 292 286 292 290 290 291 293 291 291 291 291

GFSSW_sfc_thetae_072.txt.gz
Theta_e
320 321 321 321 322 323 324 325 325 325 326 326 327 327 326 326 324 321 311 316 320 328 321 313 312 312 312 311 311 307 297 293 294 294 296 301 299 301 302 299 300 303 301 302 304
319 319 320 320 321 322 323 324 324 325 326 326 326 327 326 324 318 313 319 329 330 329 313 309 308 308 305 307 307 301 296 296 298 298 297 301 300 300 298 299 298 300 304 305 306
319 319 319 320 320 321 322 323 324 325 325 325 326 326 325 321 313 312 326 327 330 322 313 311 310 308 303 304 303 301 296 298 298 301 302 301 299 300 297 297 298 298 301 303 303
320 319 319 319 320 320 321 322 323 324 324 325 325 326 323 318 300 315 327 327 329 315 312 310 308 304 301 299 303 297 301 300 303 302 301 299 301 298 299 297 302 301 302 302 302
321 320 319 319 319 320 321 322 322 323 324 325 325 325 319 310 310 318 325 325 317 313 310 309 304 304 299 299 300 298 300 302 302 302 300 302 299 299 298 300 301 301 302 300 300
320 320 319 320 320 320 321 321 322 323 323 325 325 323 315 305 318 319 317 316 313 310 308 308 305 305 301 300 298 300 300 301 302 302 301 298 298 299 298 300 299 300 299 298 299
320 320 320 320 320 321 321 321 321 322 323 324 324 317 311 310 319 319 314 312 312 311 309 309 308 303 303 300 302 300 296 299 300 300 299 299 295 296 299 300 298 298 297 298 298
320 320 319 320 320 321 321 321 321 322 323 323 322 315 306 314 319 316 315 311 312 311 310 310 309 306 303 303 300 296 296 291 298 300 297 297 292 299 299 298 297 297 296 297 297
320 319 320 320 320 320 320 320 320 322 322 322 316 313 305 316 311 316 314 310 309 309 309 309 309 302 300 294 292 295 289 292 296 299 297 295 293 296 298 297 296 297 297 297 296
320 319 320 320 320 320 320 320 322 321 319 318 316 306 308 305 309 314 314 312 308 306 304 303 301 296 295 293 287 291 290 293 292 296 295 293 293 295 297 296 295 296 296 295 296
320 320 320 320 320 321 318 318 311 309 311 307 308 307 308 306 311 310 311 308 307 303 296 300 294 291 294 296 297 295 293 292 296 297 293 293 294 297 297 295 295 296 295 295 295
320 320 320 320 321 321 318 311 312 311 302 311 310 310 311 307 301 306 309 302 301 296 299 294 291 298 300 299 297 295 292 292 295 298 293 292 293 296 296 296 297 297 295 295 294
320 320 320 320 320 317 316 315 319 314 304 307 309 308 308 305 302 302 304 303 298 296 297 294 297 300 298 295 294 293 291 292 292 295 293 290 289 293 297 298 297 297 296 296 293
321 320 320 320 314 317 314 320 318 316 299 302 304 308 308 306 301 307 306 303 298 295 297 296 300 297 294 294 294 290 296 295 293 289 285 292 283 290 294 295 294 293 292 293 293
319 320 320 320 316 313 316 320 318 313 286 302 302 308 307 302 301 299 303 300 296 295 296 293 293 293 293 294 296 292 295 293 291 288 287 288 285 288 292 292 292 292 291 292 292
317 319 319 317 316 317 316 316 312 294 285 296 299 299 298 301 298 298 298 300 300 296 296 294 296 294 294 295 295 296 292 291 289 288 281 287 287 288 292 294 292 292 291 292 292
316 316 317 319 311 315 317 310 293 284 300 295 295 298 298 296 296 296 294 292 291 287 288 293 293 295 296 291 292 292 288 282 280 280 280 287 286 290 293 292 294 292 291 292 292
316 316 315 319 316 317 313 300 283 292 296 299 298 298 295 298 296 294 293 290 294 293 290 289 287 293 295 293 290 289 289 284 277 278 280 282 281 288 290 292 294 294 293 292 291
316 315 313 316 315 316 305 291 289 294 301 297 296 293 294 297 296 294 292 292 295 295 289 289 290 294 294 295 295 289 286 293 286 276 276 283 286 291 289 289 291 291 291 290 289
313 309 308 317 316 310 299 290 294 300 301 299 293 295 292 294 292 292 293 296 296 297 298 294 288 291 289 292 292 291 294 284 286 276 277 282 284 286 286 287 289 290 290 290 289
309 301 310 317 314 303 290 292 297 302 302 296 295 295 295 295 293 292 294 296 299 298 298 296 291 285 288 287 289 288 286 288 290 285 280 277 282 288 290 290 289 291 291 290 289
305 294 312 315 296 297 291 294 299 300 302 299 298 298 296 296 294 293 293 297 299 298 293 297 292 283 285 289 292 293 290 290 284 281 283 281 285 290 291 292 291 291 292 291 290
299 300 311 309 290 290 294 294 296 297 298 297 296 299 299 295 290 294 296 299 297 296 295 296 289 284 286 288 290 286 290 291 291 287 283 281 284 290 291 291 291 290 291 291 290
298 292 299 303 300 293 291 292 292 299 298 299 298 299 296 295 296 292 293 297 297 297 298 298 290 287 285 287 288 283 286 289 289 284 283 286 287 289 288 289 291 290 291 291 290
296 292 296 289 291 294 295 294 291 292 298 300 297 297 295 292 293 291 295 294 294 296 297 295 285 287 290 292 289 288 287 287 286 288 284 287 288 292 295 291 292 292 291 290 290
291 292 296 294 295 293 294 292 292 293 294 294 293 295 296 293 293 289 292 293 291 291 291 293 284 286 286 289 289 287 289 290 289 289 288 289 288 293 291 292 289 291 291 290 290
298 295 292 290 290 289 290 291 291 294 295 297 296 294 293 296 297 294 294 294 294 290 288 287 285 284 282 285 286 282 286 288 290 291 291 285 290 289 288 291 289 290 291 290 291

GFSSW_sfc_thetae_078.txt.gz
Theta_e
321 321 320 321 321 322 323 323 324 324 324 325 326 326 327 327 324 317 306 313 316 324 321 306 305 303 303 302 301 297 289 286 288 288 292 295 294 296 298 297 297 298 297 299 303
319 319 320 320 320 320 322 322 323 323 324 324 325 326 326 326 314 308 319 326 326 325 306 302 299 300 298 299 299 294 288 289 291 291 292 295 294 296 294 294 294 296 299 301 302
320 319 319 319 319 320 321 321 322 323 324 324 324 325 325 321 307 305 325 327 326 320 308 304 303 300 295 295 296 293 289 292 293 295 296 295 294 296 295 292 295 296 298 299 300
321 320 319 319 319 320 321 321 322 322 323 323 324 325 323 313 291 309 325 325 325 312 306 303 300 296 293 292 296 290 295 295 298 297 296 295 296 294 295 295 299 298 299 299 299
321 320 320 319 319 320 321 321 322 322 322 323 325 324 313 300 303 312 323 322 312 307 303 301 297 296 292 292 294 291 294 296 297 298 296 297 295 295 294 296 297 298 299 298 298
320 320 319 319 319 320 321 321 322 322 322 323 325 322 307 295 313 314 314 311 309 304 301 301 299 299 295 294 292 294 295 295 297 297 297 296 293 295 294 296 296 297 296 296 297
320 320 319 319 320 321 321 321 321 321 321 323 324 316 305 303 313 313 310 306 306 305 302 303 302 298 297 294 296 295 292 294 295 295 296 296 293 294 295 295 295 295 294 295 296
320 319 319 319 320 320 321 321 321 321 321 323 323 311 300 311 311 310 308 306 306 306 305 304 303 300 297 297 295 291 290 288 293 295 295 295 290 296 295 294 293 293 292 294 295
319 319 319 319 319 320 320 321 320 321 323 323 311 305 299 314 310 312 308 304 304 304 304 306 302 297 295 291 289 288 285 286 291 294 293 292 290 294 293 293 293 291 292 293 293
319 319 319 320 320 320 320 321 320 319 318 317 313 300 303 302 306 310 308 306 303 301 300 299 296 292 291 290 284 286 285 287 288 292 291 290 290 293 293 293 293 292 291 291 293
320 319 320 320 320 321 317 311 306 303 307 300 300 300 302 303 308 307 307 303 302 298 293 293 289 289 292 291 291 290 288 287 289 294 291 290 291 293 293 291 291 292 291 292 293
320 320 320 320 321 321 314 307 306 306 298 306 306 305 304 304 298 303 305 299 297 292 293 290 287 295 295 292 291 290 287 288 290 293 291 290 289 292 292 292 294 294 294 293 290
315 319 319 320 320 318 311 310 313 309 299 304 306 305 305 303 299 299 303 299 295 292 292 289 293 296 294 291 290 289 287 287 288 291 290 288 288 289 292 294 296 296 295 294 293
314 315 319 320 315 315 311 316 317 311 295 298 302 304 302 303 298 304 304 301 295 293 294 291 295 293 291 290 291 287 292 291 290 287 283 288 282 288 290 292 292 295 291 292 292
314 315 315 320 315 312 316 318 315 309 285 299 300 307 304 301 298 297 301 298 293 293 294 290 291 291 290 291 292 289 291 289 288 285 283 283 282 284 288 290 294 293 290 291 292
313 315 316 317 316 316 316 316 312 294 285 293 298 297 297 298 295 296 297 299 297 293 291 291 292 293 293 292 293 293 290 288 286 284 279 285 285 283 287 290 291 290 288 290 290
313 315 314 317 311 317 317 311 294 285 298 291 292 295 295 293 292 293 291 290 289 285 285 289 290 291 293 290 291 290 287 280 278 277 278 283 282 287 291 293 291 292 288 288 291
313 315 313 313 316 317 313 301 286 292 293 296 295 294 291 293 291 291 288 286 290 288 285 284 284 290 292 292 288 287 287 281 275 276 279 283 280 286 292 291 291 291 289 289 289
312 312 311 313 316 315 304 289 287 293 296 294 295 291 291 293 291 289 287 287 290 290 287 284 285 289 290 291 293 286 285 290 282 271 275 282 285 290 290 290 288 287 287 287 288
306 307 306 314 316 310 296 288 292 297 300 297 292 293 290 292 290 288 287 291 291 293 294 290 285 287 288 291 290 288 290 282 283 275 275 279 280 285 288 289 287 286 286 286 285
304 299 305 314 313 301 286 289 294 300 301 297 295 294 295 292 293 289 291 293 294 293 295 293 290 285 287 287 287 287 285 285 287 282 275 274 280 288 288 289 289 287 287 286 285
300 291 307 312 295 294 291 293 297 297 299 299 299 298 295 296 292 291 291 292 296 295 289 293 290 280 285 288 290 289 289 289 284 280 280 280 283 288 288 289 290 288 287 286 285
295 294 308 307 289 289 289 292 293 294 297 297 296 298 299 296 291 294 296 300 297 295 293 295 289 284 285 289 290 287 288 291 290 287 282 279 284 288 287 288 287 287 286 286 284
294 289 294 299 299 293 290 289 289 293 293 296 296 297 295 293 295 292 294 297 298 298 298 298 290 287 285 285 287 283 285 289 290 284 282 286 288 291 287 288 288 287 287 286 285
293 288 293 288 289 292 293 292 289 288 292 294 292 294 293 291 292 292 295 294 294 297 297 295 286 288 290 290 286 284 285 286 287 288 285 288 288 292 293 292 291 289 287 286 284
289 287 290 290 291 291 290 289 290 290 291 289 289 291 294 292 292 288 291 293 291 292 294 295 287 288 287 288 289 287 287 289 288 289 289 290 288 296 293 291 289 290 287 286 286
294 294 291 287 287 287 288 288 288 292 293 294 293 292 291 294 296 293 294 295 295 292 291 290 288 285 285 287 287 283 288 290 290 291 290 286 291 296 291 292 294 293 288 288 288

GFSSW_sfc_thetae_081.txt.gz
Theta_e
321 320 320 320 321 321 322 323 323 323 324 324 325 326 326 326 323 314 304 311 314 324 320 305 302 301 302 299 299 294 288 285 286 289 291 293 293 295 296 295 295 297 298 299 305
319 319 320 320 320 320 321 321 322 322 323 323 324 325 325 325 312 306 319 326 326 323 304 300 297 298 297 297 296 292 287 289 290 290 291 294 293 295 293 293 292 294 297 300 303
319 319 319 319 319 320 321 321 322 322 323 323 324 325 325 319 304 302 325 327 327 318 306 303 301 298 294 294 294 290 288 291 291 294 295 294 293 294 293 291 294 295 297 299 301
320 320 319 319 319 320 321 321 322 323 322 323 324 325 323 310 289 306 324 326 326 310 304 301 298 294 292 291 295 291 293 293 295 296 294 293 294 293 293 295 296 297 298 298 300
320 320 320 319 319 319 321 322 322 322 322 323 324 324 311 298 301 310 323 321 310 305 301 299 295 294 291 292 293 292 292 295 295 296 294 296 295 294 294 294 295 297 298 298 299
320 320 319 319 319 319 320 321 322 322 322 323 325 323 306 294 310 311 310 309 306 302 300 299 297 297 294 292 291 292 293 294 295 296 295 294 292 294 293 295 295 297 296 296 297
320 319 319 319 319 320 321 321 321 322 322 322 324 315 303 302 311 312 308 304 304 303 300 301 300 296 295 292 295 293 291 293 294 293 294 295 292 292 294 294 294 295 294 295 296
320 319 319 319 319 320 320 321 321 321 322 323 324 309 299 309 309 307 306 304 304 304 304 302 301 299 296 295 294 290 289 287 292 293 293 294 289 294 293 293 293 293 292 294 295
319 318 319 319 319 319 320 320 320 321 322 323 309 303 298 313 308 310 306 303 303 302 303 305 301 296 295 290 288 288 285 286 290 293 292 290 290 292 292 292 292 291 292 292 293
319 319 319 319 319 319 320 321 320 318 317 317 312 300 303 301 305 309 306 305 301 300 299 298 294 291 289 289 284 285 284 286 286 290 290 289 289 293 292 292 292 291 291 291 292
320 319 319 320 320 320 317 310 306 303 305 300 300 299 301 303 308 306 305 302 301 298 292 293 290 288 292 290 289 288 286 286 288 292 289 290 290 293 293 291 291 292 291 292 293
316 319 320 320 320 321 312 305 304 304 298 306 305 304 304 304 298 303 304 298 296 292 292 289 287 294 293 291 290 288 286 286 289 291 290 289 288 291 293 292 294 295 294 293 290
314 314 315 319 320 318 310 309 313 308 299 303 304 303 304 302 298 300 302 297 293 291 291 289 291 294 293 289 288 287 286 286 288 290 289 287 286 288 292 293 296 295 294 293 292
314 314 314 316 314 315 311 316 314 310 294 297 301 303 301 302 297 303 303 299 294 292 292 290 293 292 290 289 290 285 290 290 288 286 282 287 281 286 290 292 292 293 291 291 291
313 313 313 313 312 312 315 318 315 309 283 298 299 306 301 299 297 297 301 298 292 293 293 289 290 290 288 290 292 289 291 289 286 284 282 281 281 283 288 290 291 291 291 290 290
312 313 313 314 314 316 317 315 312 294 284 293 298 296 296 297 295 296 297 298 297 293 290 290 291 292 292 291 292 292 289 287 285 283 279 283 284 282 286 290 290 290 290 289 289
312 312 312 314 308 316 316 310 294 286 296 290 291 295 294 292 292 293 292 291 290 285 285 288 289 290 292 289 289 289 286 280 278 276 279 282 281 287 290 291 290 291 291 288 289
311 312 311 312 313 312 311 300 287 292 294 294 293 293 291 292 291 290 288 286 289 288 284 285 283 289 291 291 288 286 287 280 274 275 278 282 280 286 291 291 291 289 288 287 288
310 310 310 310 312 311 302 285 285 291 296 293 294 289 290 292 291 289 286 286 290 289 287 283 284 288 289 290 292 286 283 289 282 270 274 281 285 290 291 291 289 287 287 286 287
303 305 306 314 313 306 294 286 290 297 299 297 292 293 289 290 289 287 286 290 290 292 293 289 284 286 288 290 289 288 290 282 281 272 273 279 280 285 288 289 288 287 287 286 286
299 296 303 314 311 297 284 286 293 298 300 296 294 293 294 292 291 287 288 291 293 291 295 291 288 283 287 286 286 285 284 285 286 281 275 273 280 287 289 288 288 289 288 286 285
296 290 304 311 294 293 287 290 296 296 300 298 299 297 295 295 293 291 291 291 295 293 289 292 289 283 285 287 290 288 287 289 284 279 279 279 283 288 288 288 289 289 288 286 286
292 292 305 306 287 287 291 293 294 294 296 296 295 297 298 295 291 293 294 298 297 293 292 295 288 284 285 289 290 286 287 289 289 285 279 277 283 287 287 288 289 288 286 286 285
292 285 291 298 298 291 289 289 290 294 294 298 296 297 295 294 295 291 294 298 298 298 298 298 290 286 283 285 287 283 286 289 289 283 282 286 288 291 288 288 289 287 287 286 285
292 286 291 286 288 292 293 292 289 288 293 294 292 295 294 291 292 291 294 293 295 299 298 296 286 289 290 289 285 283 285 287 287 289 286 288 287 292 295 292 289 289 288 286 284
286 287 288 286 290 290 289 289 288 290 290 289 289 292 293 291 293 287 291 293 291 292 295 295 287 287 286 288 288 287 289 289 288 289 289 290 289 296 293 291 290 291 289 286 286
289 290 290 286 284 285 287 288 288 291 293 294 292 291 289 292 295 297 296 296 295 293 290 290 288 286 285 287 287 283 288 289 289 290 290 286 291 296 291 291 294 294 289 287 287

GFSSW_sfc_thetae_084.txt.gz
Theta_e
320 320 320 320 320 321 321 322 322 322 323 324 324 325 325 325 323 313 302 310 312 325 320 303 301 300 300 298 297 292 287 284 285 288 290 292 292 293 294 294 293 296 298 300 308
319 319 319 319 320 320 321 321 322 322 322 323 323 324 325 324 311 305 318 326 327 323 302 298 296 298 295 295 295 290 285 287 289 289 292 292 292 294 294 291 292 294 296 299 314
319 318 318 319 319 320 321 321 322 322 322 323 323 324 324 319 301 301 325 327 325 316 304 301 299 297 293 296 295 288 286 289 290 292 293 292 291 294 292 290 294 295 297 299 308
320 319 318 318 319 319 320 321 322 322 322 322 323 324 323 309 287 304 324 326 325 307 303 300 297 293 291 292 293 291 291 291 294 294 293 292 293 291 292 294 294 296 298 298 302
320 319 319 318 318 318 320 321 322 322 322 322 324 324 312 297 299 309 322 320 306 303 300 297 294 293 289 291 292 292 290 293 294 294 292 294 294 293 292 295 295 294 297 298 300
319 319 319 319 318 318 319 321 321 322 322 322 324 322 305 293 308 309 308 306 304 301 298 298 296 295 293 291 291 291 292 292 294 294 294 293 291 292 293 293 294 295 296 296 299
319 319 319 319 319 319 320 320 321 321 321 322 324 315 302 300 309 310 306 303 303 301 299 299 298 295 294 291 293 292 291 292 292 292 293 294 292 291 292 293 294 294 294 295 296
319 318 318 319 319 319 320 320 321 321 321 323 324 307 300 307 308 306 305 303 303 303 302 301 300 298 294 294 293 290 289 286 290 292 292 292 289 293 292 293 293 293 292 294 295
319 318 318 319 319 319 319 320 320 321 322 322 308 302 297 312 306 308 304 302 301 301 302 304 300 294 293 290 287 287 284 284 289 292 291 289 289 292 291 291 292 292 292 292 293
319 318 319 319 319 319 319 320 320 318 317 316 311 299 301 299 304 307 303 303 300 298 298 297 293 290 288 288 282 284 284 285 286 288 288 287 289 292 292 291 292 292 291 292 292
320 319 319 319 319 320 316 309 304 301 304 299 298 298 300 303 306 304 303 301 300 297 292 292 289 288 292 289 289 288 286 285 287 291 288 289 288 292 293 290 291 294 291 292 293
316 319 320 320 320 320 314 303 302 303 298 305 304 303 304 303 298 302 303 298 295 291 291 289 287 294 293 290 289 287 285 285 288 290 289 288 288 291 294 293 295 297 293 293 290
315 315 317 320 320 318 313 308 312 308 299 302 303 302 303 302 298 299 301 297 293 290 290 289 291 293 293 288 287 285 285 285 287 288 288 286 285 287 291 292 296 296 293 293 292
314 314 314 317 314 316 311 315 315 310 293 296 299 302 300 301 296 302 301 298 293 291 290 289 292 291 289 288 289 284 289 288 287 285 282 286 281 286 289 291 295 292 291 291 291
312 313 314 316 310 311 314 317 314 308 283 296 298 305 300 299 297 296 300 297 292 292 292 289 289 288 287 289 291 288 289 287 287 284 281 281 280 282 287 290 293 291 290 289 289
312 312 313 312 312 314 316 316 312 293 283 292 296 296 295 295 294 295 297 298 296 292 290 289 291 291 291 290 291 290 288 286 284 282 279 283 283 283 286 290 290 290 290 290 288
311 312 311 314 307 315 316 311 293 286 295 290 291 293 293 291 291 292 291 290 290 286 286 287 289 289 291 288 289 287 286 280 278 276 279 281 280 288 290 291 290 291 291 291 287
310 311 311 311 313 312 309 299 284 292 292 293 292 292 290 291 290 289 289 288 290 287 284 285 283 289 290 291 288 286 286 281 274 275 278 282 279 286 290 291 291 289 288 287 286
309 305 308 309 312 310 301 284 285 288 297 293 294 290 288 290 289 288 287 286 290 289 288 284 284 288 288 289 292 285 283 288 282 271 273 281 284 289 292 291 290 289 289 288 287
299 300 301 311 311 305 295 286 287 294 299 297 291 293 288 288 288 286 285 290 290 292 293 290 284 285 287 289 288 288 289 282 281 272 271 278 280 284 288 289 288 288 288 288 287
296 294 300 310 308 297 284 286 291 297 299 296 294 293 292 290 291 286 288 291 291 290 295 290 288 283 286 285 285 285 283 284 285 281 274 272 281 286 288 289 289 289 289 288 287
297 287 302 308 293 291 286 289 295 296 299 298 298 297 295 294 291 289 288 290 293 292 288 291 289 281 283 287 288 287 287 287 283 278 278 278 282 289 289 289 288 289 288 287 287
290 289 301 305 288 286 291 292 294 294 295 294 294 297 299 295 289 293 294 298 295 293 291 293 288 283 285 288 288 285 286 289 287 284 279 277 283 287 286 287 288 288 287 287 286
289 282 289 298 297 291 289 289 290 295 294 297 296 296 295 293 295 292 293 298 297 294 298 298 290 286 283 285 287 284 286 288 289 285 280 285 287 289 288 288 289 288 288 286 285
287 285 289 283 287 291 292 291 289 288 293 295 292 293 293 290 292 292 293 294 296 298 297 295 285 289 289 290 288 286 286 287 286 288 285 288 288 293 294 294 294 290 288 286 285
284 283 286 284 289 287 287 287 288 290 291 289 289 291 293 290 292 288 293 293 292 293 295 295 286 287 287 289 289 285 287 287 287 289 289 289 288 293 294 292 290 291 289 287 287
288 288 289 285 282 282 283 288 287 290 291 292 292 290 289 291 293 293 297 295 295 292 292 290 288 285 284 286 286 283 287 286 287 289 289 286 291 296 291 292 293 293 290 290 289

GFSSW_sfc_thetae_087.txt.gz
Theta_e
321 320 320 320 320 320 321 321 322 322 322 323 324 324 325 325 323 313 301 310 313 327 321 303 302 301 302 300 300 296 290 287 289 290 293 295 296 297 298 298 299 301 302 305 314
320 319 319 319 319 319 320 321 321 322 322 322 323 324 325 324 310 305 317 326 327 325 302 300 298 299 297 298 297 292 288 289 291 292 293 295 295 296 296 297 297 299 301 304 319
319 318 318 318 319 319 320 321 322 322 322 322 323 324 324 319 299 300 325 327 325 316 304 302 300 299 296 296 295 291 289 291 292 294 295 295 294 296 295 294 297 298 299 302 317
320 319 318 318 318 318 319 321 322 322 321 322 323 324 323 308 288 304 324 325 325 307 303 300 298 295 293 292 295 291 292 292 295 295 295 294 296 295 294 298 299 298 300 302 312
320 319 319 318 318 318 319 321 321 322 322 322 323 324 309 296 298 308 322 319 305 303 300 298 295 295 291 292 293 292 292 294 295 295 293 295 295 295 294 297 298 298 299 301 306
319 319 319 319 318 318 319 320 321 321 322 322 324 322 304 292 307 308 306 305 303 301 299 298 297 296 294 292 291 292 293 294 294 295 295 294 293 294 296 296 297 297 297 300 302
319 318 318 319 319 318 319 320 321 321 321 322 324 313 301 299 308 309 305 302 302 301 299 300 299 297 295 293 294 293 292 293 293 293 294 295 293 293 296 296 296 296 296 297 299
319 318 318 318 319 319 319 320 320 321 321 322 323 306 298 306 308 305 304 302 303 303 302 301 300 298 296 295 294 291 290 288 291 293 293 294 290 295 295 294 295 295 295 295 297
319 318 318 318 318 319 319 320 320 321 322 322 307 302 296 311 305 307 303 301 301 301 302 303 300 295 294 290 288 288 284 285 290 293 292 292 291 294 294 293 294 294 294 295 296
319 318 318 319 319 319 319 320 320 317 316 314 310 296 300 298 304 305 302 303 299 298 298 297 293 290 288 288 282 285 285 286 287 290 290 289 290 294 294 293 294 295 294 294 295
320 319 319 319 319 319 315 308 301 298 303 297 296 295 299 302 305 303 302 300 299 296 291 291 289 288 291 289 288 287 286 286 288 291 290 290 289 294 294 292 293 296 296 295 295
316 319 320 320 320 320 312 304 302 302 297 304 303 302 303 303 298 302 302 298 295 291 291 289 287 293 293 291 290 288 286 286 289 290 290 289 288 292 294 294 296 298 299 295 293
315 315 317 320 320 317 310 308 311 307 297 300 303 302 302 302 298 299 300 296 293 290 290 288 290 293 292 288 288 287 286 286 288 288 288 287 286 288 292 293 296 297 297 295 295
314 314 315 317 315 315 311 314 314 311 292 294 298 301 300 300 295 301 301 298 292 291 290 290 292 291 289 288 289 285 289 288 287 286 283 286 282 287 291 293 294 296 294 293 293
312 313 314 315 310 311 313 316 314 306 281 295 298 303 298 297 296 296 299 297 291 291 292 289 289 289 288 289 291 288 289 287 286 285 283 283 282 286 287 290 294 294 293 293 292
312 312 313 312 311 313 316 315 310 292 282 291 295 295 294 294 293 295 296 297 296 292 290 289 290 291 291 290 291 290 288 286 284 283 279 283 284 285 287 291 290 292 293 293 292
310 311 311 313 307 315 315 310 293 285 294 289 290 293 292 291 291 292 291 290 290 286 286 287 288 290 291 288 289 288 287 281 279 277 280 282 281 289 291 292 292 293 293 293 290
310 310 309 310 313 313 309 298 283 290 290 291 291 290 290 291 290 290 289 288 291 287 285 285 283 288 291 291 288 286 287 282 275 276 279 282 279 286 291 292 291 291 292 291 290
308 301 302 308 312 310 301 285 285 288 295 294 293 288 286 289 288 287 287 288 290 289 288 284 284 287 288 289 292 285 283 288 281 275 275 281 284 289 292 290 291 290 289 290 290
297 296 298 309 311 305 294 287 288 293 297 297 290 293 287 287 287 286 286 290 289 291 292 290 284 285 287 289 288 288 289 283 281 274 272 279 281 285 289 289 289 290 290 290 289
295 293 298 309 305 297 285 287 289 296 298 294 291 291 293 289 289 286 287 290 292 290 295 291 287 282 286 284 285 285 284 284 285 281 276 274 282 287 289 290 291 291 291 290 289
294 284 302 308 292 292 287 289 294 294 298 296 296 293 290 294 291 289 288 289 293 292 289 291 289 280 282 286 288 286 287 286 283 278 279 279 284 288 289 290 290 290 290 289 289
288 286 297 304 286 287 290 290 293 293 295 294 292 294 297 292 288 292 293 297 294 292 291 293 288 283 284 286 287 285 286 289 287 284 279 281 284 287 287 288 289 289 289 289 287
286 279 286 296 296 289 288 288 289 295 293 296 294 295 293 290 293 290 291 297 297 295 298 297 290 286 284 285 286 283 285 287 289 282 283 284 287 289 288 289 289 289 289 288 287
286 284 284 275 286 290 291 290 288 288 293 294 292 292 292 287 289 290 293 294 295 296 296 295 285 288 289 290 287 284 284 287 286 288 285 287 288 292 294 293 293 291 290 288 287
285 281 283 282 288 285 286 287 288 290 291 290 289 290 292 289 289 285 290 291 292 294 294 295 287 288 287 291 290 286 288 287 288 289 288 289 288 294 295 296 293 295 289 288 288
291 291 284 281 280 280 280 284 285 287 289 292 292 289 288 291 292 292 292 293 293 289 286 289 285 285 283 287 287 283 287 287 288 288 289 285 291 294 290 292 293 294 292 290 290

GFSSW_sfc_thetae_090.txt.gz
Theta_e
321 321 321 320 320 320 321 321 321 322 322 323 323 324 325 325 324 319 308 314 317 326 321 311 310 310 310 308 306 304 302 298 298 298 301 302 302 303 304 305 307 310 308 312 324
321 320 320 320 320 320 321 321 322 322 322 322 323 324 325 324 315 310 320 326 327 324 309 308 306 308 306 305 305 304 300 299 300 302 302 303 303 304 303 303 304 306 309 309 324
320 320 320 319 319 319 320 321 321 322 322 322 323 324 324 323 308 306 325 327 326 320 311 309 308 306 303 305 303 300 299 299 300 300 302 302 302 304 303 302 306 306 309 309 321
320 319 319 319 318 318 319 321 321 322 321 322 323 324 323 316 296 310 324 326 325 313 310 307 306 304 302 300 302 299 299 299 300 301 301 301 303 302 303 306 307 309 308 309 316
320 319 319 319 318 318 319 320 321 321 322 322 324 324 315 304 304 314 322 321 312 310 308 306 304 303 300 301 301 300 300 300 301 301 301 301 301 302 302 307 306 305 304 307 311
319 319 319 318 318 318 319 320 321 321 322 323 324 322 310 299 313 314 312 310 309 309 307 306 305 304 301 300 300 300 300 301 301 301 301 300 301 301 304 305 305 304 305 307 309
319 318 318 318 318 318 319 319 320 321 321 322 324 315 308 303 315 316 310 309 309 308 307 307 307 305 304 300 301 300 299 301 302 300 300 301 299 299 306 303 303 304 305 306 307
319 318 318 318 319 319 319 319 320 321 322 322 323 312 302 311 316 311 310 308 309 309 309 308 309 305 303 303 301 299 299 296 298 299 299 301 296 303 303 303 303 305 306 305 306
319 318 318 318 318 318 319 319 320 321 322 322 314 309 300 315 310 312 310 307 307 308 308 307 307 303 302 299 297 297 293 294 296 299 298 299 299 303 301 301 303 305 305 305 306
319 318 318 318 318 319 319 320 321 319 317 315 313 304 306 303 310 309 308 308 305 306 305 305 303 300 299 298 290 293 293 293 294 297 297 297 297 302 304 302 304 306 306 306 306
319 319 319 319 319 320 318 313 307 305 310 302 302 299 303 307 311 307 307 306 305 303 299 299 298 295 297 299 297 295 294 294 296 297 297 298 298 301 304 304 303 305 306 307 306
316 318 320 319 320 320 317 307 306 308 301 308 306 305 307 308 303 306 307 304 302 297 297 296 294 299 298 297 296 295 294 294 296 296 296 297 296 300 302 303 304 305 307 308 308
315 315 317 320 320 318 313 311 314 310 303 304 306 305 305 306 302 304 305 303 300 296 296 295 296 297 296 294 293 294 293 293 293 294 295 294 295 297 301 302 304 305 306 306 306
313 314 315 317 315 316 312 317 317 316 295 296 301 305 303 305 300 306 307 304 298 297 296 296 298 295 294 293 295 291 295 295 293 292 290 293 288 297 300 301 303 305 304 305 304
312 312 314 316 311 311 314 318 318 312 283 298 299 307 302 301 300 300 304 302 297 296 297 295 293 293 293 294 296 294 294 294 293 293 290 292 289 294 296 297 301 305 303 302 301
311 312 313 313 313 313 316 317 315 294 284 295 299 298 297 298 296 299 300 302 301 296 295 295 296 296 297 294 295 294 294 293 292 291 287 292 291 293 296 298 302 301 301 301 301
310 310 311 312 308 317 317 310 293 284 297 293 295 296 296 294 294 295 294 294 293 290 290 292 293 295 295 292 294 293 293 287 286 284 285 288 289 294 299 300 301 303 303 303 300
309 309 309 311 313 314 312 298 283 292 293 296 295 294 293 294 294 293 293 291 295 294 292 289 287 293 296 296 293 292 294 289 284 284 288 286 285 293 300 303 302 301 302 301 299
307 307 306 309 313 311 302 286 286 290 296 296 295 292 292 293 294 292 293 293 296 294 290 289 288 293 292 295 297 290 288 295 289 280 285 291 295 297 299 299 298 299 299 300 300
304 302 302 311 313 306 294 288 292 294 298 297 289 293 291 292 291 291 291 297 295 298 299 294 288 291 292 294 294 294 297 288 290 284 283 289 289 292 296 298 300 299 300 301 300
300 294 301 312 311 298 286 288 291 296 298 295 292 291 290 291 292 290 293 295 297 296 297 297 293 288 291 290 292 291 290 291 292 290 287 285 290 299 300 300 299 300 300 301 301
297 287 303 310 293 295 288 290 294 295 298 296 296 293 290 291 288 289 290 293 296 296 291 296 294 289 289 292 293 297 294 293 290 285 288 287 290 296 298 299 299 299 297 298 298
291 292 301 305 286 288 290 291 294 293 295 294 292 295 296 292 288 291 294 299 296 294 293 295 290 286 287 290 292 289 292 294 294 290 288 286 290 293 295 295 295 297 297 296 296
292 284 292 296 297 290 288 288 288 296 294 296 294 295 293 292 294 290 291 296 296 295 297 297 291 289 287 291 293 288 290 291 292 288 289 289 292 295 294 294 295 295 296 296 295
292 286 289 285 288 291 292 290 288 288 294 295 293 293 292 288 290 290 292 293 297 299 297 294 285 288 291 292 290 289 291 290 289 292 289 293 292 296 298 299 299 298 296 293 292
287 286 289 288 289 289 290 288 287 289 291 290 290 292 292 289 290 287 289 289 289 290 290 292 285 288 285 291 291 286 290 291 291 292 293 294 293 298 300 301 301 301 295 294 294
293 293 291 286 286 286 286 287 287 290 289 293 290 288 287 289 292 292 293 293 293 290 288 286 285 285 284 289 288 284 288 290 290 293 293 289 294 300 298 298 300 301 301 297 296

GFSSW_sfc_thetae_093.txt.gz
Theta_e
322 322 321 320 320 320 321 321 321 322 322 322 323 324 325 325 324 321 310 315 317 327 320 312 312 312 312 309 311 310 303 300 301 301 302 307 305 307 309 307 309 312 312 318 325
322 321 321 320 319 320 320 321 321 321 321 322 322 323 324 324 318 311 317 324 328 326 311 309 307 310 307 307 308 306 302 302 305 305 303 305 306 307 305 305 306 309 312 316 325
321 320 320 320 319 319 320 320 321 321 321 322 323 324 324 323 310 309 324 327 326 319 313 311 310 308 305 307 305 304 300 302 302 303 304 305 304 307 305 304 307 307 310 312 322
321 320 320 319 318 319 319 320 321 321 321 322 323 324 323 319 297 313 324 326 326 315 312 309 308 305 303 301 305 299 302 302 302 303 303 303 306 304 305 307 310 311 311 312 317
321 320 320 319 318 318 319 320 320 320 321 322 324 324 318 306 305 315 322 321 314 312 310 308 305 305 301 302 303 301 302 302 303 302 303 303 303 304 305 309 311 309 308 310 312
320 319 319 318 318 318 319 319 320 321 321 322 324 322 312 300 315 315 314 312 312 311 309 309 306 307 303 302 302 303 302 303 304 303 303 301 302 302 305 308 308 309 308 309 310
319 319 319 318 318 318 318 319 320 320 321 322 323 318 308 305 317 317 313 311 311 311 308 309 309 306 306 302 304 303 300 302 303 303 302 303 300 300 306 307 306 307 307 308 309
319 318 318 318 319 319 319 319 320 320 321 322 323 315 303 314 319 313 313 311 312 312 311 310 311 308 306 306 303 300 301 296 302 302 302 302 296 304 307 307 306 307 308 308 309
319 318 318 318 318 319 319 320 320 320 322 322 315 311 301 316 311 314 313 309 310 310 310 310 310 305 304 300 298 300 294 297 299 302 301 300 299 305 306 305 305 307 309 309 309
319 318 318 318 318 318 319 319 320 320 318 316 314 306 306 303 312 311 311 311 308 308 306 306 305 301 301 298 291 294 295 296 296 300 299 299 299 303 306 306 306 307 309 309 309
319 319 319 318 319 319 319 317 309 307 311 303 303 301 304 309 313 310 309 308 308 306 300 304 299 295 298 300 299 298 296 295 298 300 298 298 299 301 304 305 305 306 307 309 310
317 319 319 319 320 320 319 309 308 310 300 308 307 306 308 310 304 307 309 304 303 298 302 299 295 300 301 300 298 297 294 294 298 300 297 298 297 301 304 304 306 306 307 309 310
315 315 319 319 320 319 315 312 317 314 302 303 307 305 305 308 303 305 306 305 301 298 298 295 297 300 299 297 295 295 294 294 294 298 298 296 295 298 303 305 306 307 309 309 310
314 314 316 319 315 318 313 318 320 319 297 297 300 305 306 306 300 310 309 305 301 297 298 297 300 297 297 295 296 291 298 296 295 294 290 297 288 296 300 301 304 307 308 309 310
312 313 314 316 313 313 316 319 319 315 285 300 300 308 305 301 301 302 308 304 298 298 298 295 296 295 295 295 298 295 298 297 296 294 294 293 289 294 299 298 301 305 308 310 309
311 312 313 313 314 313 316 318 315 295 285 296 301 299 298 299 298 301 301 304 303 299 299 297 298 299 298 297 298 298 296 295 295 294 287 292 291 292 297 299 302 305 306 306 305
309 310 312 314 310 318 317 310 292 284 298 294 296 298 298 296 295 297 296 295 294 289 290 295 295 298 298 294 296 296 294 287 286 285 285 293 292 295 300 303 304 305 307 305 305
309 308 309 312 314 317 313 297 283 292 294 300 298 298 295 297 296 296 294 292 296 295 292 289 287 294 297 297 294 293 294 288 284 285 288 289 287 294 303 305 306 307 306 308 305
308 309 308 310 313 313 303 287 287 292 298 296 297 294 294 296 296 295 294 293 296 297 290 289 290 297 297 298 298 292 290 297 290 287 286 290 295 300 302 302 303 304 303 304 305
304 303 304 311 313 306 296 289 293 297 299 299 292 295 292 294 293 293 294 298 296 299 300 295 289 295 293 296 297 295 298 288 290 284 282 288 291 293 298 300 303 304 303 304 305
302 295 304 312 311 299 287 290 293 296 300 296 294 292 292 292 293 292 294 298 299 298 300 297 293 290 293 292 292 292 291 292 293 291 285 284 289 300 301 304 303 305 306 307 305
298 289 306 310 294 295 290 292 295 295 298 297 297 296 293 294 290 290 290 297 299 298 293 297 294 289 291 297 298 297 294 294 289 287 290 289 290 301 302 302 302 304 302 303 305
292 294 304 305 287 289 292 291 295 295 295 295 293 295 296 292 288 292 294 300 300 297 294 296 290 286 288 293 294 291 294 296 295 293 289 287 289 299 299 300 300 299 300 299 300
292 285 293 295 297 292 290 288 289 296 295 296 295 296 294 292 294 291 291 297 297 296 297 296 288 288 287 290 293 289 291 294 293 288 289 291 293 299 301 300 299 299 300 300 299
294 288 291 286 289 291 291 289 288 288 294 296 293 294 291 288 290 290 293 294 297 297 297 293 285 288 289 291 291 290 291 292 290 292 289 292 294 298 302 302 301 301 300 298 297
290 289 291 289 291 289 291 288 288 289 292 290 290 293 293 290 290 287 290 290 290 292 292 290 285 286 285 290 290 287 288 290 291 293 293 294 294 302 303 303 303 302 300 297 298
294 297 292 288 288 288 288 289 289 291 293 293 292 290 288 289 291 292 292 292 293 291 289 287 286 285 282 288 286 283 286 290 291 294 293 289 295 300 300 300 301 301 301 303 301

GFSSW_sfc_thetae_096.txt.gz
Theta_e
323 322 322 322 321 321 321 320 321 321 322 322 323 324 325 325 323 321 312 315 318 326 320 312 311 311 311 309 310 307 297 294 296 297 296 302 300 301 302 301 301 307 306 313 319
322 322 322 321 320 320 320 320 321 321 321 322 322 324 325 325 318 311 317 323 325 326 311 307 305 308 304 305 305 301 296 297 299 299 298 301 300 301 298 299 300 303 307 316 320
322 322 321 320 320 320 320 320 320 321 322 323 323 324 324 322 312 311 324 324 324 320 312 310 308 307 302 303 301 299 296 298 299 301 301 301 299 301 298 297 301 302 305 312 318
322 321 321 320 319 319 319 320 320 321 321 322 323 324 323 319 298 313 324 324 324 314 311 307 306 302 300 298 302 295 299 299 302 301 300 299 301 299 300 301 304 303 307 311 316
321 320 320 320 319 318 319 319 320 321 322 323 323 323 318 308 307 314 321 320 314 312 308 306 302 302 298 298 300 296 298 299 300 299 298 300 298 298 299 302 303 305 306 306 312
320 319 319 319 319 318 318 319 320 321 322 323 324 323 314 300 315 314 313 313 311 310 307 307 304 304 300 299 297 299 300 299 301 300 300 297 297 298 299 302 302 303 302 303 306
320 319 318 318 318 319 319 319 319 321 321 322 323 318 308 306 316 314 313 311 311 310 307 308 307 303 302 299 301 299 295 298 299 299 298 299 296 296 300 301 301 301 301 303 303
319 318 318 318 319 319 319 319 320 320 321 322 324 316 303 315 316 313 312 310 311 311 310 310 308 307 304 302 300 295 294 289 297 299 298 296 289 299 300 300 299 300 300 301 303
318 318 318 318 318 318 319 319 319 320 321 322 316 311 302 316 310 313 312 308 309 309 309 309 309 303 301 294 291 294 287 290 294 299 298 295 292 299 300 298 299 299 301 302 302
318 318 318 318 318 318 318 319 321 320 319 316 313 305 305 303 311 311 310 310 308 306 305 304 301 296 295 291 285 289 289 291 289 295 294 294 293 298 300 300 299 300 301 302 303
318 318 318 318 318 318 317 315 309 307 309 303 303 301 305 309 313 308 309 306 307 303 296 300 293 291 293 295 295 293 291 290 292 296 293 293 294 296 298 298 297 298 298 300 302
319 319 318 319 319 320 317 309 308 311 300 306 305 306 308 310 304 306 308 301 300 295 298 295 291 297 298 297 294 293 289 289 293 296 293 293 293 297 298 299 300 299 300 300 301
316 318 319 319 319 317 314 312 316 314 300 302 306 304 305 307 302 303 304 302 298 295 295 292 294 299 296 294 292 291 289 289 289 293 293 290 289 293 297 299 301 302 303 302 302
315 315 318 319 314 317 312 318 319 318 295 296 300 304 306 305 299 308 306 303 298 294 295 294 298 295 293 292 294 288 293 293 291 288 283 291 281 290 295 296 298 300 300 300 301
313 314 315 319 315 313 315 319 319 313 282 299 299 308 305 299 300 302 306 302 296 296 295 292 293 292 292 293 295 291 294 292 291 288 287 287 283 287 293 292 295 298 298 300 302
311 312 313 314 314 313 317 318 314 294 282 295 299 298 297 299 298 300 300 302 301 296 296 294 296 295 294 294 295 296 293 292 290 288 281 286 286 284 289 293 295 297 298 301 299
309 309 311 315 310 316 316 309 291 284 298 293 294 298 296 294 294 296 294 293 291 287 288 293 292 294 296 292 294 293 289 281 280 279 279 287 285 288 294 296 296 298 299 299 299
308 308 309 312 315 318 312 296 283 292 293 299 298 297 293 295 294 294 292 290 294 291 287 285 284 292 294 293 290 290 290 282 276 278 280 284 282 288 296 298 299 301 298 300 299
307 307 307 310 313 313 303 285 286 292 298 296 297 293 292 295 294 293 291 290 293 294 288 286 286 294 294 295 295 289 286 292 284 277 278 283 288 293 296 297 298 298 298 298 298
303 303 303 311 312 307 296 289 293 298 299 299 291 295 290 292 291 291 291 295 293 296 297 291 285 292 291 294 293 291 293 284 284 274 274 280 281 286 292 293 296 296 298 297 299
301 294 305 312 310 298 287 290 294 297 300 296 294 292 293 293 293 290 291 295 297 295 297 293 290 286 290 288 289 289 287 289 289 285 278 277 281 291 293 296 295 297 299 299 298
297 288 305 310 294 294 289 293 295 295 298 297 298 296 293 293 291 291 291 294 298 296 292 295 292 283 287 293 295 293 290 290 283 281 283 282 285 295 296 296 297 296 296 295 296
291 292 304 304 287 289 293 292 295 294 295 295 294 296 296 293 288 292 293 299 299 297 295 296 289 280 284 289 291 289 291 293 292 287 284 281 285 294 295 294 294 294 293 295 294
290 284 293 296 295 291 290 289 290 296 296 297 295 296 293 292 294 291 292 296 297 296 297 296 289 287 283 288 291 287 288 291 291 285 285 285 288 293 293 295 294 293 294 294 294
292 285 291 284 287 290 291 290 288 288 294 296 293 293 292 288 290 289 292 294 295 297 296 293 284 287 288 290 290 286 287 290 289 290 286 289 290 294 296 296 298 295 295 293 293
289 287 289 287 289 289 289 287 287 289 290 289 289 293 293 288 289 287 291 291 290 292 293 291 284 286 283 288 289 286 289 288 290 291 290 290 289 297 298 299 297 298 296 295 296
293 294 290 286 285 286 285 287 288 290 291 293 292 290 290 291 292 293 292 292 292 291 289 286 285 283 276 285 284 278 283 287 289 291 292 288 293 298 296 297 297 299 298 298 298